GFSGBSN_850_dewp_009.txt.gz
Dewpoint
2 3 5 5 7 7 8 7 2 4 5 6 6 6 6 3 1 -4 -0 -1 -0 0 1 0 -2 -1 -0 6 6 3 1 2 5 8 8 9 9 7 7 6 6 7 7 6 6 7 8
3 3 3 3 4 5 6 7 7 1 4 5 5 6 5 5 3 -4 1 -0 2 1 2 1 -0 3 3 4 -2 3 5 4 4 4 6 7 7 7 7 6 6 6 6 6 6 6 6
1 2 3 3 3 3 5 6 7 6 2 5 4 5 5 5 4 1 -1 2 4 3 1 1 1 1 3 2 -0 -2 3 4 4 4 2 1 5 7 7 7 6 6 7 6 5 6 7
1 2 2 2 2 2 3 4 6 7 5 4 4 4 5 4 5 2 -4 1 5 5 5 3 1 2 2 1 -0 2 1 3 3 4 4 4 5 6 8 6 6 7 7 8 5 5 6
0 0 0 1 1 1 3 2 4 6 7 4 4 5 4 5 5 1 -1 2 3 3 5 4 5 3 3 2 2 0 2 2 3 4 4 4 3 3 4 7 7 7 7 7 6 5 6
-1 -1 -1 -1 1 1 2 2 2 4 6 7 4 5 5 4 6 1 -1 4 3 4 4 4 4 4 3 2 1 1 0 2 2 2 3 2 3 5 5 7 7 6 8 6 6 6 6
-1 -1 -2 -2 -1 1 1 2 2 3 5 6 5 5 6 5 4 2 1 5 4 4 4 4 4 3 1 2 2 2 1 2 2 2 3 2 5 6 4 4 5 5 6 6 5 4 5
-2 -2 -2 -1 -1 -1 1 1 1 2 1 4 6 5 7 7 6 3 2 4 3 3 3 3 3 3 2 3 3 3 2 3 3 4 2 3 4 3 2 2 4 4 6 6 4 3 4
-2 -1 -2 -1 -2 -1 0 1 1 2 1 -2 4 5 6 6 6 4 2 4 3 3 3 2 3 4 3 2 3 3 2 3 3 4 4 4 2 1 2 3 5 5 5 4 4 4 3
-1 -1 -3 -2 -3 -1 0 0 1 2 1 0 3 6 6 7 5 4 4 3 4 3 2 1 4 4 3 3 3 2 2 2 3 4 3 3 1 2 2 3 3 4 3 4 4 5 5
-1 -2 -2 -2 -3 -1 -1 -0 1 1 0 1 2 5 6 6 5 4 4 1 4 3 -1 1 3 4 4 3 3 4 3 2 3 4 3 4 4 3 3 2 2 3 2 2 4 5 5
-1 -2 -2 -2 -3 -3 -1 -0 1 0 -0 0 2 3 5 6 5 4 2 1 4 -0 0 4 4 4 5 4 3 3 3 3 3 3 3 2 1 2 2 1 1 2 3 3 3 4 6
-1 -1 -2 -2 -2 -3 -0 -0 0 0 1 1 2 2 4 6 4 1 0 3 3 1 0 4 3 4 3 5 4 3 5 5 6 6 5 5 4 2 2 3 2 1 3 6 7 6 5
-2 -2 -1 -2 -2 -2 -0 -1 -0 0 2 1 2 1 2 6 5 1 2 3 2 -1 2 3 3 4 4 3 4 4 5 5 4 4 5 5 6 4 2 3 4 3 2 4 5 6 4
-1 -1 -2 -3 -2 -2 -1 -1 -0 1 1 2 2 2 1 4 3 1 2 4 1 0 2 4 3 4 4 3 3 4 5 4 2 3 5 4 4 3 2 1 2 5 6 1 2 3 7
-3 -2 -2 -2 -2 -3 -2 -1 -2 0 1 2 2 3 2 4 1 3 3 1 0 1 3 2 4 3 4 4 5 5 4 2 2 2 1 3 4 2 2 2 2 2 1 6 5 6 7
-2 -3 -2 -2 -2 -3 -2 -0 -1 0 1 1 2 2 3 4 3 4 4 1 2 2 4 4 4 4 3 4 4 2 2 1 2 2 2 3 2 2 2 4 3 4 4 3 2 4 5
-2 -2 -2 -2 -2 -3 -2 -1 -1 0 1 2 2 2 3 3 4 4 4 1 1 2 4 4 4 3 4 3 4 3 3 2 1 2 4 2 4 4 2 1 1 2 2 2 6 2 2
-2 -2 -4 -2 -2 -3 -2 -1 -1 0 0 1 3 3 3 4 4 4 2 2 2 3 4 4 5 4 4 3 4 3 2 -0 1 1 3 2 6 4 6 5 4 5 3 2 2 4 4
-3 -2 -4 -2 -3 -3 -2 -1 -1 0 1 2 3 3 4 4 4 2 2 3 4 3 2 3 5 4 5 5 2 3 2 0 -0 1 1 2 5 5 4 6 6 5 5 2 2 4 3
-3 -3 -4 -3 -3 -3 -2 -1 -1 0 1 3 2 4 3 4 4 2 2 3 4 5 4 3 5 5 5 5 4 3 2 1 1 1 3 4 5 5 5 4 5 6 6 4 4 3 4
-3 -3 -3 -2 -3 -3 -2 -1 -0 1 1 4 4 5 2 3 3 2 3 3 5 4 5 6 6 5 5 6 3 2 2 2 2 4 4 4 6 5 6 5 5 5 5 6 3 3 4
-3 -3 -3 -3 -3 -3 -2 -1 -0 0 0 1 2 5 3 3 4 4 3 4 4 4 5 4 5 5 5 5 3 3 4 3 2 4 5 5 5 6 6 7 7 7 5 5 5 4 5
-3 -3 -3 -3 -3 -3 -2 -1 -0 0 1 1 2 3 5 4 3 3 4 3 4 4 4 4 4 5 4 4 5 4 4 5 4 2 4 5 5 6 6 7 10 7 5 5 5 5 4
-3 -3 -3 -3 -3 -3 -2 -1 -0 0 1 2 3 4 5 5 3 3 4 4 4 4 4 4 4 4 4 5 7 6 7 6 5 2 3 2 4 7 9 7 5 6 8 7 7 6 4
-3 -3 -3 -3 -3 -3 -2 -1 -1 0 1 2 4 5 5 5 5 4 4 4 5 4 4 5 5 5 5 6 7 8 6 5 6 6 2 2 3 5 6 8 6 1 4 2 5 6 5
-3 -3 -3 -3 -3 -4 -2 -1 -1 -0 1 2 4 5 4 3 4 4 4 4 3 3 3 4 4 5 5 6 7 7 6 4 6 6 6 6 6 6 6 7 5 2 -0 -0 7 4 0
-3 -3 -3 -3 -3 -3 -3 -2 -1 -1 0 1 4 5 5 4 4 4 3 4 4 3 5 4 5 6 6 7 7 7 6 5 5 4 5 5 6 6 5 7 5 1 -1 1 -0 1 0
-2 -3 -3 -4 -4 -5 -3 -3 -1 -2 -0 1 2 5 5 4 4 4 3 3 3 4 3 4 5 5 6 6 6 6 6 4 5 6 3 6 4 5 4 4 1 1 1 1 -0 1 1

GFSGBSN_850_dewp_012.txt.gz
Dewpoint
2 3 3 2 2 4 4 5 6 7 7 2 4 5 7 6 5 4 -3 -0 -0 0 3 1 -0 -2 3 8 8 3 3 3 5 8 9 8 8 6 6 6 6 7 6 6 6 6 6
1 1 2 2 2 3 3 4 4 5 7 6 2 4 5 6 5 5 0 0 0 1 3 3 3 3 2 5 1 5 3 4 5 8 9 9 8 7 7 6 6 5 6 6 5 6 6
1 1 1 1 2 2 2 2 3 3 6 6 4 4 5 5 6 5 3 -1 2 3 2 2 3 2 4 1 -0 -1 5 5 4 6 5 4 6 6 7 7 6 6 7 6 5 5 5
0 0 0 0 -0 -0 1 1 2 2 4 6 6 4 5 5 6 4 3 -0 3 4 5 3 1 3 1 0 0 1 1 4 4 4 4 4 6 7 7 6 5 6 7 7 4 5 5
-0 -0 -0 -1 -0 1 -0 0 1 1 2 4 5 6 5 6 6 5 3 1 1 4 4 5 5 3 3 2 2 -0 2 2 3 3 4 4 3 4 5 6 6 6 6 7 5 4 5
-0 -1 -0 -1 -1 -0 -1 -0 0 1 2 2 4 5 5 5 6 6 3 0 3 3 4 5 4 4 3 2 1 1 1 2 3 3 3 3 3 4 5 5 5 5 7 6 6 4 4
-1 -2 -2 -1 -2 -2 -2 -0 0 1 1 2 2 4 5 5 6 6 3 4 4 4 5 4 3 3 1 3 2 2 1 1 2 2 4 2 5 6 5 4 4 5 6 6 5 3 4
-1 -1 -0 -0 -1 -2 -2 -1 0 0 1 2 2 2 4 6 7 6 3 2 2 2 3 3 4 3 3 3 3 2 2 2 3 4 2 3 4 3 3 3 4 5 5 5 3 2 3
-0 -0 -1 -1 -1 -2 -2 -3 0 -1 0 0 1 -0 1 5 7 6 3 1 2 3 2 2 2 4 3 3 3 3 3 3 3 4 4 4 2 1 3 3 4 4 5 4 4 2 1
-1 -0 -1 -1 -2 -1 -1 -3 -2 -2 -0 1 0 -1 -1 5 6 5 4 3 3 2 -1 -0 4 3 3 3 3 2 2 3 3 4 3 4 2 2 2 3 3 4 2 4 4 5 5
-1 -1 -0 -1 -2 -2 -2 -1 -2 -0 -0 1 -2 -2 1 5 6 5 4 3 2 1 1 1 4 4 4 2 2 3 3 2 3 3 3 3 3 3 4 3 1 2 2 3 4 5 5
-0 -1 -1 -1 -2 -2 -2 -1 -0 -0 -0 0 -0 -0 0 3 5 5 3 2 3 -1 0 3 3 5 4 3 4 4 3 3 3 3 2 1 1 2 2 1 1 1 2 3 3 5 6
-1 -1 -2 -3 -2 -2 -2 -1 -2 -1 -0 1 1 1 1 2 4 5 3 4 2 2 0 4 4 3 4 4 4 4 4 5 5 6 6 5 4 2 2 3 1 2 4 5 7 6 4
-1 -1 -3 -4 -3 -2 -2 -2 -2 -1 0 1 1 2 2 1 2 5 1 1 3 -0 1 2 1 2 3 3 3 4 5 5 4 5 5 5 4 4 2 2 3 3 3 5 5 5 3
-2 -2 -3 -4 -3 -2 -2 -2 -1 -0 0 1 2 2 2 -1 3 4 2 3 2 -0 2 4 2 3 3 3 3 4 5 5 2 4 5 5 3 2 2 2 2 6 5 1 3 1 5
-1 -2 -3 -2 -3 -2 -2 -2 -1 -1 0 1 2 2 1 0 4 4 1 2 -0 -0 2 2 3 3 4 4 4 5 4 2 3 3 2 4 5 1 2 2 2 3 3 6 5 5 5
-2 -2 -3 -2 -3 -3 -2 -2 -0 1 -0 1 1 2 1 0 4 3 4 2 0 2 2 3 3 3 2 4 3 4 2 1 2 1 2 3 4 2 3 4 3 4 5 5 5 6 4
-2 -3 -3 -3 -4 -3 -2 -2 -1 -0 0 1 2 2 2 1 3 3 4 1 1 2 4 4 3 3 3 3 4 3 2 1 0 2 3 3 5 4 3 1 1 1 2 2 4 2 3
-2 -2 -2 -3 -4 -3 -3 -1 -1 -1 1 0 2 3 3 2 4 4 2 2 2 3 4 4 5 4 3 4 4 3 2 0 1 2 3 2 5 5 4 4 3 4 3 1 2 3 3
-3 -4 -2 -3 -3 -3 -3 -1 -1 0 1 1 2 3 4 3 3 3 2 2 3 2 3 3 4 4 4 5 2 3 3 1 1 1 2 1 5 5 4 5 5 6 5 4 3 5 3
-4 -4 -2 -3 -4 -3 -3 -2 -0 1 1 2 3 3 2 3 3 2 1 2 2 4 3 2 5 4 5 7 6 4 2 1 1 1 3 3 5 5 5 4 5 5 6 5 5 3 3
-4 -4 -3 -4 -3 -3 -3 -2 -0 0 1 3 4 4 2 1 3 1 1 4 4 3 4 5 5 4 5 6 4 4 3 2 4 2 3 4 5 5 5 5 5 6 5 4 5 3 1
-4 -3 -3 -3 -4 -3 -3 -2 -1 -0 1 1 1 3 2 2 4 2 2 3 2 3 3 3 4 5 6 5 4 4 3 3 3 4 5 5 5 6 5 5 6 6 5 5 4 4 2
-4 -4 -3 -3 -3 -3 -3 -2 -1 -0 0 1 1 2 4 4 3 2 2 1 4 4 4 4 4 5 4 4 3 4 3 4 5 4 3 5 4 5 6 6 9 7 5 3 3 3 3
-3 -3 -3 -3 -3 -3 -3 -1 -1 -0 0 1 2 2 5 4 2 2 4 3 3 3 4 4 3 4 4 4 6 7 7 5 5 5 4 4 4 6 8 8 7 7 6 4 4 4 2
-3 -3 -3 -3 -3 -3 -4 -2 -2 -1 0 2 4 4 5 4 3 2 3 4 5 5 4 5 5 4 4 5 6 8 7 5 5 5 2 4 2 6 6 8 7 2 7 5 5 8 4
-3 -2 -3 -3 -3 -3 -3 -3 -3 -2 -1 1 4 4 5 4 3 2 4 4 4 4 4 4 4 4 5 6 7 7 7 3 5 6 6 5 5 5 5 6 5 2 1 4 8 5 1
-4 -5 -3 -4 -4 -4 -4 -3 -3 -2 -1 1 3 4 5 4 4 4 3 3 3 3 4 4 5 5 5 6 7 7 6 4 4 3 5 4 5 6 5 6 4 1 1 3 0 0 0
-4 -5 -3 -4 -6 -4 -3 -3 -3 -3 -1 0 2 4 5 4 4 4 4 3 3 3 3 4 4 5 5 7 5 6 6 4 4 5 3 5 3 4 4 3 0 1 1 1 0 0 1

GFSGBSN_850_dewp_015.txt.gz
Dewpoint
1 1 1 1 1 1 2 3 3 3 3 5 6 4 5 5 6 6 5 3 -4 -1 2 1 -1 -3 4 8 8 4 4 4 6 9 9 8 8 5 5 5 6 7 6 6 6 6 6
1 1 1 1 1 1 1 1 2 2 2 3 5 6 4 5 5 6 5 4 -4 -1 2 5 2 2 0 6 5 6 4 2 5 8 9 8 7 7 6 6 5 5 6 6 5 5 5
1 1 1 1 0 -0 1 1 1 1 2 2 4 5 6 5 5 7 5 4 -1 1 2 3 3 2 3 -0 -1 -1 5 4 3 9 8 9 8 6 6 7 6 6 7 5 5 5 5
0 0 -0 -0 0 -1 -1 -1 -1 1 1 2 2 4 5 5 5 6 6 4 1 3 5 3 2 2 1 0 -0 0 3 5 6 8 4 3 4 7 7 6 5 7 6 7 4 4 5
-1 0 -1 -0 0 0 -0 -1 -1 -1 0 1 1 2 4 5 6 6 6 4 0 4 4 6 5 3 3 3 2 1 0 4 5 4 4 4 4 4 6 6 6 6 6 7 5 3 4
-0 -0 0 -0 -0 0 -0 -1 -1 -2 0 -1 0 0 2 4 6 6 7 4 0 2 3 5 5 4 4 2 2 2 1 2 2 4 4 3 3 4 5 6 6 5 7 6 6 4 3
0 -1 0 0 1 -1 -1 -1 -1 -2 -1 0 -0 -0 -1 1 5 6 6 3 4 4 4 4 4 3 2 3 2 2 1 2 3 3 4 2 5 5 5 4 3 5 6 6 4 3 3
-0 -0 -0 1 0 -0 -1 -1 -1 -1 -2 -3 -0 0 0 -1 4 6 6 3 2 0 3 2 4 4 3 3 3 3 2 2 2 4 2 3 5 3 3 4 4 5 5 5 3 1 2
0 1 0 -0 -0 -1 -1 -1 -1 -2 -3 -2 -0 1 2 -0 1 5 5 4 2 1 1 1 3 4 3 3 3 3 2 3 3 4 3 4 2 1 3 4 4 4 5 3 3 2 1
1 0 -0 -0 -1 -1 -1 -1 -1 -2 -1 0 0 -1 1 -0 2 4 5 3 1 1 -1 0 3 3 4 3 3 2 2 2 3 4 3 3 1 2 3 4 3 5 2 3 3 4 3
0 -0 -0 -0 -1 -1 -1 -2 -2 -1 -0 -2 -1 1 -0 1 2 5 4 3 2 -1 -2 1 3 4 3 3 1 3 3 3 4 3 3 3 3 4 4 3 2 3 1 2 3 5 5
-1 -0 -0 -1 -1 -1 -1 -2 -1 -1 -1 -2 0 1 1 2 2 2 4 3 1 -0 1 3 2 4 4 2 3 3 3 3 2 3 3 1 1 1 2 1 1 1 3 3 3 4 6
0 -0 -1 -1 -1 -1 -1 -2 -1 -1 -1 -1 1 1 1 2 2 3 4 4 3 1 0 4 3 5 3 3 4 3 4 5 5 5 5 4 3 2 1 2 2 2 5 5 5 6 4
-0 -1 -1 -2 -1 -2 -3 -2 -2 -2 -1 -1 0 2 1 1 1 2 4 3 4 0 1 1 2 3 4 2 3 4 4 5 3 4 5 4 3 3 2 2 3 4 3 5 5 4 3
-0 -1 -2 -2 -2 -4 -2 -2 -2 -1 -1 1 1 2 2 2 1 1 3 5 2 -0 3 2 2 3 4 3 3 4 5 4 3 3 5 4 3 2 2 2 1 4 5 1 4 3 5
-1 -2 -2 -2 -2 -2 -3 -2 -2 -1 0 1 1 1 2 1 1 1 2 4 -0 1 2 2 4 2 3 3 4 4 4 2 3 3 2 3 4 1 2 2 2 4 3 5 5 5 5
-1 -2 -2 -2 -3 -3 -3 -2 -1 -1 -0 1 1 1 2 1 0 2 4 2 1 2 1 2 3 3 3 4 3 4 3 1 2 3 2 3 4 2 3 4 2 4 5 5 5 5 5
-2 -2 -4 -3 -4 -5 -4 -2 -1 -1 0 1 0 3 2 2 1 1 4 1 1 4 3 3 2 2 2 3 4 3 3 0 0 2 4 2 4 4 2 1 1 1 2 2 5 4 4
-1 -2 -3 -4 -4 -4 -3 -3 -2 -1 1 1 0 2 2 2 3 4 3 3 2 3 4 4 4 3 2 3 4 3 2 -0 1 2 3 3 5 4 3 3 2 4 3 2 2 2 4
-3 -2 -2 -4 -4 -4 -3 -2 -1 -1 1 1 1 2 3 3 3 3 2 3 3 2 3 3 4 3 4 4 2 3 3 1 1 1 1 1 3 3 3 3 4 5 4 3 4 5 3
-3 -2 -3 -3 -2 -4 -3 -2 -1 -0 1 2 2 1 2 3 3 2 1 1 3 4 2 2 5 4 4 6 5 4 2 1 2 1 2 3 5 4 4 2 3 5 6 5 5 4 4
-2 -2 -3 -2 -2 -3 -3 -3 -2 -1 0 1 1 3 2 2 3 1 2 2 1 3 3 4 4 2 4 5 4 4 3 2 3 2 3 4 5 5 5 4 5 5 5 5 5 4 3
-3 -3 -2 -3 -4 -3 -4 -4 -2 -1 0 1 1 2 3 2 3 2 2 2 3 2 2 3 3 3 5 4 4 4 4 3 2 3 3 5 5 6 5 5 6 7 6 5 5 4 3
-2 -2 -2 -2 -3 -3 -3 -4 -1 -2 -0 0 1 2 3 3 2 2 1 1 2 3 4 4 3 4 4 4 4 4 5 4 3 3 3 5 4 5 6 6 8 8 5 4 5 3 1
-2 -3 -3 -2 -3 -3 -3 -4 -3 -1 -0 0 1 2 4 3 2 1 1 0 1 2 4 4 3 4 4 4 5 6 6 6 4 4 5 4 5 6 7 7 6 6 5 5 5 4 1
-2 -2 -3 -2 -3 -3 -3 -4 -4 -3 -1 0 3 3 4 3 2 1 3 2 4 4 4 4 3 3 4 4 5 7 7 4 4 4 2 4 4 6 6 7 9 3 5 2 3 6 2
-3 -3 -4 -3 -4 -5 -3 -3 -3 -6 -2 0 3 2 4 5 3 2 3 4 4 4 4 4 4 5 5 5 5 7 7 3 5 5 5 5 5 6 6 6 5 2 1 4 7 4 0
-7 -3 -4 -5 -4 -4 -4 -4 -3 -14 -4 -1 1 3 3 4 4 2 2 3 3 3 4 3 4 5 5 6 6 6 7 4 4 2 4 4 5 6 5 6 4 0 4 4 0 0 1
-17 -5 -4 -5 -5 -5 -3 -2 -5 -8 -2 -2 0 3 4 4 4 4 3 3 3 3 3 4 4 5 4 5 6 6 5 3 3 5 2 5 3 4 3 3 0 1 0 0 1 0 1

GFSGBSN_850_dewp_018.txt.gz
Dewpoint
2 2 1 1 1 1 1 2 2 2 2 2 3 3 5 6 5 6 7 5 4 -3 -2 0 -1 -1 7 7 8 5 4 5 7 9 9 8 7 5 5 4 5 5 3 4 4 5 4
1 1 1 0 1 1 0 -0 -0 -1 0 2 2 2 4 5 5 5 7 6 4 -1 -1 4 2 1 3 6 6 7 5 3 7 9 9 8 8 6 5 4 4 3 5 4 4 4 4
0 0 1 0 1 1 0 0 0 -0 -1 0 1 1 2 4 5 5 6 7 4 1 -1 2 4 2 3 1 -1 1 3 6 6 9 9 9 7 6 6 5 5 4 5 2 2 2 2
0 1 0 1 0 1 1 0 0 -0 -1 -1 -0 -0 -0 3 4 5 6 7 4 1 2 3 2 2 2 0 0 -0 1 6 6 8 8 7 8 6 4 5 3 4 4 5 2 3 3
1 1 -0 -0 0 0 0 -0 0 -0 -1 -0 -0 0 -2 2 3 5 6 7 4 0 4 5 4 3 3 2 1 0 0 5 8 5 5 7 6 4 5 4 4 4 4 5 3 1 2
1 1 1 1 0 -0 -0 -0 -0 -1 -0 -0 -1 0 -0 -2 -0 4 6 7 5 3 4 5 5 4 4 3 3 2 0 4 4 5 5 5 3 3 2 5 6 4 6 3 4 2 3
0 1 1 1 -0 -0 -1 -0 -1 -0 -1 -1 -1 -2 -1 0 0 -0 5 6 4 4 5 3 3 3 3 3 2 2 2 3 3 4 4 3 4 5 3 2 2 3 4 4 2 1 2
1 1 1 0 0 1 -0 -1 -1 -1 -1 -3 -2 -1 -1 -1 1 -1 2 4 2 1 3 4 4 3 3 3 3 3 2 2 2 3 3 4 5 2 1 2 3 3 4 3 1 0 1
1 1 1 -0 0 -0 -1 -2 -1 -0 -1 -2 -2 -2 -0 -0 -1 -1 1 5 3 -1 1 3 4 4 3 3 3 3 3 2 2 4 4 4 2 1 2 3 4 3 4 3 2 0 0
-0 0 0 -0 -0 -1 -3 -1 -2 -1 -1 -1 -1 -2 -1 1 -1 -2 0 3 3 1 4 2 3 3 3 3 2 3 2 2 3 3 3 3 1 2 2 3 2 4 1 2 2 3 4
0 -0 -0 -0 -2 -3 -2 -1 -3 -1 -1 -1 -1 -1 0 1 -0 1 2 3 4 2 5 1 3 4 3 1 2 3 3 2 3 3 3 3 2 3 3 2 1 3 0 1 1 3 3
-1 -1 -2 -2 -3 -2 -2 -3 -1 -1 -2 -1 -1 -0 0 1 1 -1 3 3 3 4 4 3 3 4 4 2 2 3 3 3 2 2 2 1 1 1 1 1 1 1 2 2 2 3 6
-1 -1 -2 -3 -3 -1 -2 -3 -2 -1 -1 -1 -0 1 1 1 0 -1 2 3 4 6 0 4 3 4 2 3 3 2 4 4 4 6 5 2 2 1 0 2 1 2 3 4 5 6 4
-1 -2 -3 -3 -2 -2 -2 -2 -2 -1 -1 -0 0 1 1 1 2 2 2 2 6 1 2 1 2 2 3 1 3 3 4 5 2 3 4 4 5 2 2 2 1 2 2 3 3 1 -1
-2 -3 -3 -2 -2 -2 -2 -2 -2 -1 -1 -0 1 1 2 1 2 2 2 5 4 -0 1 2 3 3 4 1 2 3 3 3 2 2 5 5 3 1 1 1 1 3 5 1 4 2 4
-2 -2 -2 -2 -2 -2 -2 -2 -2 -1 -0 1 0 1 2 2 1 2 2 5 0 1 0 0 3 1 3 3 3 3 3 1 1 0 0 2 5 0 1 2 2 2 0 5 5 4 3
-3 -2 -2 -2 -3 -5 -2 -2 -2 -0 0 1 0 1 2 2 1 1 4 4 3 0 0 1 2 2 2 2 2 2 2 1 1 2 1 2 2 2 2 3 2 4 5 6 4 4 3
-2 -3 -2 -2 -4 -4 -3 -2 -1 -1 -0 0 1 1 1 2 2 2 4 1 1 2 3 2 0 1 2 2 3 2 2 1 -0 2 3 2 2 4 3 -2 -1 -1 1 2 6 5 5
-2 -2 -2 -3 -2 -3 -2 -3 -1 -1 0 1 1 0 2 2 4 4 3 2 3 3 3 3 3 2 1 2 3 2 2 -0 0 1 2 2 4 4 4 3 1 2 0 0 3 4 5
-1 -3 -3 -2 -2 -3 -3 -3 -1 -2 1 1 1 2 2 2 3 2 2 3 4 3 3 3 3 2 2 2 2 3 2 1 0 0 1 1 2 4 3 3 3 6 3 3 5 6 4
-1 -2 -4 -2 -3 -2 -2 -3 -2 -2 1 1 1 2 2 4 3 1 1 2 3 3 3 3 3 3 3 4 3 4 2 1 1 1 1 2 5 4 3 2 3 4 4 4 5 4 5
-1 -2 -2 -3 -2 -3 -2 -4 -2 -2 0 1 0 2 3 3 1 0 1 1 2 3 2 3 2 3 3 4 3 4 3 3 2 1 2 3 5 5 5 5 4 6 5 5 5 5 5
-1 -1 -3 -2 -3 -3 -4 -5 -2 -3 -0 -0 0 1 3 2 1 1 1 1 0 2 2 2 2 3 3 2 3 3 2 2 1 2 3 4 5 6 6 4 6 7 6 6 5 5 4
-2 -2 -2 -3 -3 -4 -5 -6 -3 -3 -1 0 0 1 3 3 2 1 0 1 2 -0 4 3 3 3 4 3 4 4 5 4 4 4 2 5 5 5 6 7 8 7 5 5 5 5 4
-2 -3 -3 -3 -3 -4 -5 -5 -4 -4 -1 0 2 2 3 3 1 1 1 1 2 3 2 3 3 3 3 4 4 4 5 6 5 4 4 3 5 7 7 7 4 6 5 7 5 4 2
-3 -3 -4 -3 -4 -4 -5 -6 -4 -11 -5 -0 1 1 2 3 2 0 1 0 1 1 2 3 3 3 3 4 5 5 6 4 5 5 3 4 5 6 7 7 8 5 2 3 2 5 1
-3 -3 -3 -3 -3 -4 -6 -5 -3 -13 -2 -2 1 1 2 4 4 1 1 2 3 3 5 4 4 5 4 5 5 5 5 3 5 5 5 5 5 6 5 6 4 1 1 4 5 5 1
-9 -4 -4 -5 -7 -4 -5 -6 -10 -14 -3 -3 -1 1 1 2 4 2 1 3 3 3 4 4 4 5 5 5 5 5 6 5 5 3 4 4 5 5 5 5 6 0 3 4 2 1 1
-17 -3 -6 -19 -5 -5 -5 -14 -9 -6 -9 -4 -1 0 2 2 5 3 2 2 2 2 3 4 4 4 4 5 5 6 6 4 4 5 2 5 3 3 3 3 1 1 1 1 1 1 1

GFSGBSN_850_dewp_021.txt.gz
Dewpoint
1 1 1 1 1 1 1 1 1 1 1 0 0 2 3 3 5 6 5 6 7 5 -0 -2 -1 -2 6 8 8 6 6 7 8 9 8 6 5 3 3 2 2 3 1 -1 1 2 2
1 1 1 2 1 1 0 1 1 1 1 0 0 1 2 1 4 5 6 6 7 5 1 -1 1 -1 6 7 6 7 5 6 8 9 9 7 6 4 4 3 3 2 2 2 2 2 2
1 1 2 1 0 1 1 1 1 1 1 0 0 0 -0 -1 2 4 5 6 7 5 2 -0 4 2 4 4 3 4 7 6 8 9 9 8 8 6 5 5 4 4 5 3 2 2 3
2 2 2 1 1 0 0 -0 1 0 0 1 0 -0 -0 1 -1 3 5 5 6 6 1 0 2 5 3 2 3 0 3 6 8 9 9 9 8 7 5 4 3 4 3 5 1 1 0
2 2 2 1 1 1 -1 -0 1 -1 -0 0 0 0 -0 0 -0 1 3 6 5 6 2 2 3 5 3 2 1 2 2 5 7 6 7 8 7 6 5 5 4 3 4 3 2 0 1
2 2 2 2 1 0 -0 1 -1 -2 -2 -1 -0 -1 -2 -2 -1 -1 1 4 5 5 4 6 6 5 3 3 4 3 2 5 5 5 6 5 4 3 4 4 6 3 5 3 2 0 2
2 1 1 1 2 0 0 -0 -1 -2 -1 -2 -1 -2 -1 -2 -1 1 1 3 6 5 6 4 4 3 4 4 4 3 2 4 4 4 4 3 4 5 2 1 1 2 2 2 1 -1 1
1 0 0 0 1 -1 -2 -2 -2 -2 -2 -2 -2 -2 -1 -3 -1 0 0 2 3 5 5 3 3 3 4 3 3 3 2 3 3 5 2 4 6 2 0 1 2 2 3 3 0 -1 -0
1 0 1 0 -1 -1 -3 -2 -3 -3 -3 -2 -2 -2 -2 -1 -1 -3 0 -1 3 4 4 4 3 3 4 3 2 3 2 1 3 3 3 5 2 0 1 2 3 3 3 2 2 -0 -1
0 0 -1 -0 -1 -2 -2 -2 -2 -3 -3 -1 -1 -1 -1 0 -1 2 2 -3 3 4 6 4 3 2 4 3 3 3 2 2 2 3 3 3 1 1 2 3 2 4 -0 0 1 2 3
0 -0 -1 -1 -1 -2 -2 -1 -2 -2 -1 -2 -2 -1 0 0 1 -1 2 2 2 3 8 2 3 3 3 1 2 3 2 2 2 2 2 3 2 2 2 1 0 2 0 1 1 2 3
-0 -1 -2 -2 -2 -1 -2 -2 -1 -1 -2 -1 -1 -0 1 1 1 -2 1 2 3 4 7 4 3 4 3 1 2 3 3 2 1 1 1 1 0 0 1 0 0 0 1 1 1 2 5
0 -1 -2 -2 -1 -1 -3 -2 -2 -2 -2 -1 -1 0 1 1 1 2 0 3 3 6 1 4 3 3 3 2 3 3 4 4 4 6 5 2 1 -0 -1 1 1 1 3 4 6 6 4
-0 -3 -2 -1 -2 -2 -4 -1 -2 -1 -1 -0 -0 -0 1 2 1 1 2 3 5 4 2 -0 3 2 3 2 2 1 2 4 1 1 3 4 6 2 1 1 2 3 2 3 2 -1 -2
-1 -3 -3 -3 -4 -3 -3 -2 -2 -1 -1 -0 0 0 2 2 1 1 2 4 6 1 1 2 2 4 4 2 3 2 2 3 1 1 5 4 4 -0 0 0 -0 2 4 1 3 1 3
-0 -2 -2 -4 -4 -3 -3 -2 -2 -2 -0 -0 1 0 2 2 1 2 3 5 2 -1 -0 0 2 2 3 2 3 2 2 0 0 -1 -1 2 5 -0 0 0 0 1 1 5 5 5 2
-0 -2 -3 -2 -4 -2 -3 -2 -2 -0 -0 1 1 1 2 1 1 2 4 5 1 -1 -1 0 1 1 1 1 1 1 2 1 -0 0 -1 0 2 3 1 3 1 3 4 4 1 3 4
-0 -1 -3 -3 -4 -2 -3 -3 -2 -0 0 1 1 2 2 1 3 3 4 4 -0 0 2 0 -1 -1 0 1 1 2 2 0 -0 -0 2 0 2 4 3 -2 -2 -2 1 1 5 4 4
-1 -1 -3 -4 -2 -3 -2 -5 -1 -2 1 2 0 0 1 2 4 3 3 3 1 3 2 2 2 0 -1 1 2 1 1 -1 -1 1 1 1 3 4 5 2 -1 0 -0 -1 2 4 6
-2 -1 -3 -3 -3 -3 -2 -6 -1 -3 1 2 1 2 2 2 3 1 4 3 4 3 2 1 2 -0 1 1 1 2 2 1 -0 -0 1 0 2 5 4 3 2 7 3 2 5 7 4
-2 -1 -2 -2 -3 -3 -3 -5 -2 -2 1 1 1 3 2 3 3 1 3 2 3 2 1 2 2 1 1 2 2 2 1 1 1 0 0 1 6 4 3 2 3 4 4 4 6 6 6
-3 -2 -2 -2 -2 -2 -4 -5 -3 -2 0 1 1 2 2 0 0 -1 0 3 3 2 1 2 2 2 2 2 2 3 2 1 2 1 1 2 6 5 5 3 3 5 4 5 7 6 6
-2 -2 -3 -2 -3 -2 -4 -4 -3 -4 -0 1 1 1 2 1 0 -1 0 1 1 1 2 1 1 2 2 2 2 2 2 2 1 2 2 4 5 5 6 3 4 7 7 7 6 5 6
-2 -3 -3 -3 -7 -3 -3 -3 -3 -9 -0 1 1 1 3 3 -0 -1 -0 -1 -0 -0 3 2 2 2 4 4 4 3 3 4 3 3 2 4 5 6 7 6 8 7 3 5 7 5 2
-3 -4 -3 -3 -3 -4 -4 -3 -3 -12 -1 1 1 1 2 2 0 -0 -1 -0 1 0 1 2 3 3 3 3 3 3 4 5 4 3 4 2 5 7 7 6 3 5 4 5 6 6 2
-3 -4 -12 -4 -12 -8 -4 -3 -7 -16 -3 0 1 1 1 3 0 -1 -0 -0 2 2 2 2 4 3 4 3 4 4 3 4 4 5 3 4 4 6 7 7 7 4 1 2 2 7 1
-2 -5 -18 -18 -19 -21 -7 -10 -6 -8 -12 -2 0 1 2 3 3 0 0 1 0 0 3 4 4 5 4 5 6 4 3 3 4 4 5 4 5 7 6 7 3 -0 1 3 6 4 1
-2 -3 -16 -19 -17 -21 -17 -4 -3 -3 -12 -9 -1 1 1 1 3 3 0 2 3 3 3 4 4 4 5 5 4 5 7 4 4 1 3 4 5 5 4 5 6 0 1 4 3 2 1
-3 -3 -5 -17 -16 -14 -14 -5 -4 -3 -3 -8 -3 -3 -0 1 4 3 3 2 3 3 3 4 4 3 4 4 5 5 6 4 3 5 2 4 2 3 3 3 0 1 1 1 2 2 1

GFSGBSN_850_dewp_024.txt.gz
Dewpoint
2 2 2 3 1 2 1 1 1 1 1 1 1 1 1 1 2 3 4 5 6 7 6 4 -4 -2 5 7 8 7 6 8 8 7 9 6 4 3 4 1 0 2 1 0 -0 0 1
3 3 3 2 2 2 1 2 1 0 1 1 1 1 1 0 1 1 3 4 6 6 6 4 -3 0 4 6 6 7 5 6 8 8 8 6 4 3 3 2 2 1 2 2 1 0 2
2 3 3 2 1 2 2 0 -0 -1 0 -0 1 1 1 1 -0 1 1 4 6 6 7 4 -2 2 4 5 4 6 6 6 7 8 8 7 7 6 5 5 3 3 5 4 3 2 3
2 2 2 2 2 2 2 1 1 0 1 -0 -3 -0 0 0 -0 0 -1 2 5 6 7 4 1 4 4 3 3 3 4 6 6 8 8 8 8 6 6 4 3 5 5 7 1 2 2
2 2 1 1 1 2 1 0 -0 -1 0 -0 -2 -3 -1 -0 -2 -2 -0 -1 2 6 7 3 3 5 3 3 2 2 2 5 7 7 8 8 7 6 5 5 5 4 5 5 3 1 1
2 1 1 1 1 1 1 -0 -1 -1 -2 -2 -2 -2 -2 -2 -1 -2 0 -1 1 5 6 4 5 4 3 4 2 2 2 4 6 6 8 8 7 6 6 6 7 5 5 4 3 2 1
0 1 0 1 0 -0 -0 -0 -2 -2 -2 -2 -3 -3 -3 -2 -2 -2 -1 1 1 5 5 5 5 3 2 4 3 3 2 5 4 5 6 5 6 6 5 4 4 3 3 3 1 -1 0
1 1 1 0 -0 -1 -1 -1 -1 -1 -1 -2 -3 -2 -2 -1 -2 -1 -2 2 1 4 5 5 4 3 4 3 3 3 3 5 4 6 3 4 6 3 1 1 2 2 3 4 2 -1 -0
1 1 0 -1 -1 -1 -1 -1 -1 -2 -3 -3 -2 -2 -1 -0 -1 -2 -0 0 -0 2 5 5 3 3 3 3 3 3 3 3 4 5 4 4 3 1 2 2 3 3 4 3 3 1 -0
0 1 -1 -2 -0 -1 -1 -3 -2 -1 -2 -1 -1 -1 -0 0 -1 1 0 1 1 2 4 5 4 3 4 3 3 3 2 2 3 5 4 4 1 1 3 3 2 4 1 1 2 3 4
0 1 -1 -2 -1 -1 -1 -3 -1 -2 -2 -1 -2 -1 -0 1 1 1 0 2 0 2 7 5 4 3 3 2 3 3 2 2 3 3 3 5 3 3 3 2 1 2 1 1 2 3 3
-0 -0 -2 -2 -3 -3 -3 -3 -3 -1 -2 -2 -1 -1 -0 1 1 0 1 2 2 4 6 5 3 3 4 2 2 2 2 2 1 2 2 2 -0 0 2 0 0 0 1 1 2 3 4
-0 -0 -2 -2 -3 -2 -1 -2 -2 -1 -1 -1 -1 -1 1 1 1 1 1 2 3 4 3 5 4 3 2 3 3 3 4 4 4 5 6 3 2 0 -0 2 1 2 2 5 6 6 4
0 -0 -2 -2 -3 -2 -2 -1 -1 -2 -1 -1 0 0 1 1 2 1 1 2 4 5 4 0 3 3 2 2 3 3 4 4 2 2 4 5 5 2 0 2 3 3 3 5 5 5 3
0 -0 -2 -3 -4 -2 -2 -1 -2 -2 -1 -0 0 0 1 1 1 0 2 4 5 3 1 3 3 4 3 2 3 3 4 3 1 1 4 4 4 0 0 -0 1 3 4 1 4 2 3
-0 -0 -1 -3 -3 -3 -2 -1 -2 -1 0 1 1 1 2 2 1 1 3 4 4 -0 1 0 3 1 3 3 3 2 3 -0 0 -1 -1 2 4 0 1 0 -0 1 0 5 5 3 3
-1 -0 -1 -4 -4 -4 -3 -1 -2 -0 0 1 1 1 1 1 1 2 4 4 4 -0 -1 1 1 1 1 2 2 2 1 0 -1 -0 -1 0 2 3 2 3 3 3 3 3 3 4 4
-1 -1 -1 -2 -4 -4 -1 -2 -1 -1 1 2 1 1 2 1 2 3 4 3 1 2 1 -1 -1 -1 -0 -0 2 0 1 1 -2 -1 1 -0 2 5 3 -0 -0 0 2 1 4 2 3
-1 -1 -1 -3 -4 -2 -2 -3 -2 -0 1 2 1 1 1 2 3 4 2 4 1 3 2 1 1 -1 -2 0 2 1 1 -1 -0 0 1 1 4 3 5 2 -0 1 -0 1 1 2 4
-2 -2 -2 -2 -3 -3 -3 -5 -5 -0 1 1 1 2 2 2 3 2 4 4 5 2 2 0 0 -1 -0 1 0 2 2 0 -0 0 -0 -0 2 4 4 4 3 5 4 2 3 6 4
-2 -2 -3 -2 -2 -3 -5 -5 -6 -0 2 1 2 3 2 4 3 2 4 3 3 2 1 1 1 0 0 2 2 1 1 2 0 1 0 1 5 3 3 2 2 3 3 3 5 6 6
-2 -3 -3 -3 -3 -3 -6 -5 -7 -1 1 1 2 2 2 1 1 2 3 4 2 2 2 1 2 1 1 1 2 2 1 1 2 1 1 1 4 5 4 3 3 4 3 3 4 6 6
-2 -3 -3 -2 -2 -3 -5 -3 -11 -3 1 1 1 2 2 1 0 1 1 2 2 1 2 1 1 1 2 4 3 3 1 1 1 2 2 5 5 6 6 4 4 6 5 6 6 5 6
-2 -2 -6 -3 -4 -8 -3 -4 -13 -14 0 1 1 1 2 2 0 -0 -1 -1 1 1 3 2 2 3 4 3 3 3 3 3 3 2 1 5 5 5 6 5 6 6 4 4 5 5 5
-2 -2 -3 -9 -4 -10 -18 -12 -14 -16 -8 1 1 2 2 4 0 -1 -1 -1 -0 2 2 2 3 4 3 3 4 4 5 5 4 3 3 3 5 6 7 7 3 3 4 4 6 5 2
-2 -1 -3 -5 -8 -7 -15 -11 -4 -11 -17 -2 1 1 2 3 2 1 -1 0 2 2 2 3 3 2 4 4 4 4 3 5 5 5 3 4 4 6 6 7 7 5 2 2 3 7 2
-1 -2 -2 -4 -3 -9 -5 -10 -4 -4 -15 -15 0 0 1 2 3 3 0 1 0 0 4 3 4 5 4 4 6 4 3 2 4 5 5 6 6 6 6 7 4 -0 1 3 7 4 2
-2 -3 -1 -3 -2 -3 -4 -4 -4 -4 -4 -11 -5 -0 -1 0 1 2 3 1 1 2 4 4 4 4 5 6 5 4 5 5 4 2 4 4 5 5 5 6 5 0 1 4 3 2 2
-1 -3 -2 -2 -2 -2 -3 -3 -3 -4 -4 -4 -3 -1 -3 -1 2 4 3 3 3 3 3 4 4 3 4 5 4 5 5 5 4 7 1 4 2 4 3 4 0 1 1 1 2 2 1

GFSGBSN_850_dewp_027.txt.gz
Dewpoint
3 3 2 2 3 2 2 2 2 1 0 1 1 1 1 1 1 1 1 2 4 5 6 8 5 -1 0 6 6 8 7 8 8 6 4 5 7 5 4 2 2 3 2 2 1 0 0
3 3 2 2 2 3 2 2 1 1 -0 1 2 1 1 1 0 2 0 0 1 4 6 7 5 2 2 6 4 7 5 7 8 7 5 7 6 4 3 3 2 1 2 3 2 3 3
2 2 2 2 1 2 1 1 0 -0 -1 -0 1 -0 -2 1 1 0 0 -0 -1 4 6 7 5 2 3 3 6 7 4 6 7 7 6 6 7 6 5 4 4 4 5 4 4 4 3
2 3 2 1 1 1 1 0 0 -1 -1 -1 -1 -2 -2 -0 0 0 -2 -0 -1 1 5 7 4 4 4 -1 4 6 6 6 7 8 7 7 7 6 5 4 3 4 4 7 4 2 3
1 2 2 1 1 1 -0 -0 -1 -2 -2 -2 -2 -2 -3 -3 -3 -3 -2 -3 -1 -2 3 6 5 4 3 2 2 3 3 6 6 7 7 8 8 6 4 5 6 5 6 6 5 1 2
1 1 2 1 0 -0 -0 -1 -1 -1 0 0 -2 -3 -3 -3 -3 -2 -2 -2 -2 -2 1 6 5 4 4 3 3 2 1 5 7 7 9 8 8 7 6 6 8 6 6 4 4 2 2
1 1 1 0 -0 0 -0 -0 -0 -0 -1 -2 -3 -3 -3 -2 -2 -1 -1 -3 -1 0 3 4 4 3 2 4 2 2 2 4 6 7 8 8 8 8 6 5 4 5 4 4 2 0 0
0 1 1 0 -1 -0 -0 -0 -0 -1 -1 -1 -3 -2 -1 -1 -2 -1 -1 -0 -1 2 2 4 5 4 3 3 3 2 3 5 5 7 4 5 7 5 4 4 5 3 4 4 2 0 0
1 1 1 0 -2 -0 -0 -2 -1 -1 -1 -1 -1 -1 -1 -1 1 -1 0 0 1 -0 3 4 5 5 3 3 3 2 3 5 4 6 5 5 3 2 3 3 3 3 4 3 3 1 -0
1 1 -0 -1 -2 -1 -0 -1 -1 -1 -1 -1 -1 -1 -1 1 1 0 -0 0 2 1 3 6 5 4 3 3 3 2 4 3 4 5 4 4 1 1 3 4 2 4 1 2 2 2 4
1 -0 -0 -1 -2 -1 -0 -1 -1 -1 -1 -1 -1 -1 -1 0 2 1 1 1 2 -0 6 5 5 3 2 4 3 2 3 2 4 4 4 6 4 3 2 3 1 3 1 1 1 2 2
-1 0 -0 -2 -2 -2 -1 -1 -0 -1 -2 -2 -2 -0 0 2 1 0 1 2 0 2 5 5 4 4 4 3 3 3 3 2 1 3 3 2 -0 1 2 -0 0 0 1 1 1 2 3
0 0 0 -2 -2 -2 -1 -1 -1 -2 -1 -1 0 0 1 1 1 0 0 1 2 3 4 5 6 4 4 4 3 3 4 4 4 6 7 4 3 -0 -0 2 1 1 1 2 4 4 3
-1 0 0 -2 -3 -3 -3 -2 -1 -2 -0 0 1 0 0 1 -0 0 2 2 2 5 5 3 4 3 4 3 4 3 4 5 3 2 4 5 3 2 0 2 3 3 1 2 5 5 4
-0 -0 -1 -2 -3 -2 -3 -1 -2 -0 0 1 1 0 2 1 0 1 2 2 4 5 4 5 3 3 4 3 4 3 4 3 2 1 3 3 3 1 0 -0 1 3 3 1 3 2 0
-1 -1 -1 -2 -2 -2 -2 -1 -1 -0 2 1 -1 1 2 2 0 1 3 4 3 3 2 2 5 2 4 3 4 3 4 2 1 -0 -1 2 4 1 1 0 0 1 0 2 1 2 4
-1 -2 -1 -1 -2 -2 -2 -1 -1 0 1 -1 -0 0 2 2 2 2 3 2 4 1 0 2 2 2 1 4 2 2 3 1 -0 0 -1 0 2 3 2 2 3 3 3 2 2 2 2
-1 -1 -2 -3 -2 -3 -2 -1 -2 1 0 -1 -0 1 1 1 1 2 3 2 3 2 1 -0 -1 0 -0 1 2 1 2 0 -1 -1 1 -0 3 5 3 0 -0 1 2 2 3 1 2
-1 -2 -3 -2 -2 -4 -3 -1 -7 1 1 -1 1 1 1 2 3 3 2 3 4 4 2 1 1 -1 -1 1 1 -0 1 -0 -1 -0 0 1 3 1 3 2 1 2 1 1 1 2 3
-1 -3 -3 -3 -3 -6 -5 -1 -10 1 0 0 1 1 1 2 3 3 4 5 4 2 2 1 -1 -2 -1 1 -0 1 2 0 0 1 -1 -1 3 1 2 2 3 3 3 1 3 5 4
-1 -3 -3 -3 -2 -3 -4 -4 -10 1 1 1 1 2 2 1 2 2 3 4 3 3 1 0 1 -0 1 2 0 1 2 1 0 1 0 1 3 2 2 2 3 2 3 3 4 4 6
-2 -3 -3 -3 -5 -4 -7 -11 -12 1 1 1 1 1 1 2 0 2 3 3 3 3 3 2 3 3 3 4 3 2 2 2 2 1 1 1 3 4 4 3 3 4 3 3 3 3 4
-2 -1 -3 -3 -8 -10 -14 -15 -14 -3 1 1 2 2 2 2 0 1 2 2 2 2 2 2 2 3 5 4 3 3 1 1 1 1 2 3 3 5 3 3 4 6 4 3 5 5 6
-2 -1 -3 -3 -4 -14 -10 -13 -12 -13 -1 1 1 1 2 2 1 0 -0 0 1 2 3 2 2 4 4 3 2 3 3 3 2 1 2 5 5 5 5 5 4 5 4 4 5 4 4
-3 -1 -1 -3 -2 -5 -13 -4 -8 -14 -14 -0 1 1 2 2 2 -0 -1 0 2 2 3 3 4 4 3 3 4 5 5 5 4 2 2 3 5 6 7 6 3 2 5 5 5 5 2
-3 -1 -2 -2 -2 -3 -4 -6 -4 -7 -15 -10 1 1 1 2 2 3 2 1 1 2 2 4 2 1 3 4 4 3 3 4 6 5 3 4 4 6 6 7 6 3 1 1 3 6 2
-5 -1 -2 -2 -2 -2 -3 -4 -4 -4 -5 -11 -0 0 1 1 2 2 3 2 0 1 3 4 4 4 4 4 5 4 2 2 5 6 6 6 6 6 6 7 4 1 0 3 6 4 2
-7 -2 -2 -4 -3 -2 -2 -2 -4 -2 -5 -5 -5 -1 -1 0 1 0 1 4 3 2 3 3 3 4 4 4 5 4 3 4 4 3 4 5 6 6 6 6 5 -1 1 4 2 2 2
-6 -2 -2 -6 -4 -2 -2 -2 -2 -2 -2 -4 -6 -4 -2 -2 0 1 1 3 4 3 3 3 4 3 3 4 3 4 4 4 4 5 2 5 3 4 3 3 -1 0 1 1 2 2 1

GFSGBSN_850_dewp_030.txt.gz
Dewpoint
2 3 2 2 2 2 3 2 2 -0 0 -0 0 -0 1 0 1 1 1 0 1 1 4 6 6 7 2 5 5 8 7 5 8 8 8 7 7 6 5 4 4 3 3 3 2 2 2
3 3 3 2 2 2 2 1 0 0 1 -0 -1 -1 -0 -2 -1 -1 0 1 1 1 2 5 6 6 2 5 -2 7 7 7 8 7 7 6 7 6 4 3 3 1 2 2 2 2 3
3 3 2 2 2 2 0 -0 -1 -0 1 0 -0 -2 -2 -2 -2 -1 -0 0 1 1 -0 4 6 5 3 -1 6 4 6 7 7 6 5 3 6 5 4 5 4 4 4 4 3 3 3
2 1 1 2 1 1 1 1 0 1 0 -1 -1 -1 -2 -3 -2 -1 -3 -3 -3 -2 -2 4 6 6 3 -2 6 5 5 6 7 7 7 4 7 7 6 4 3 4 4 6 3 2 2
2 2 2 2 1 0 0 -1 0 1 0 -2 -3 -3 -3 -2 -3 -2 -3 -4 -3 -3 -2 1 5 5 3 -0 2 6 5 6 7 8 7 7 7 6 5 5 5 4 6 6 5 2 2
2 1 1 1 -0 -1 0 0 -1 -1 -0 -1 -2 -3 -4 -3 -2 -2 -1 -3 -5 -4 -3 -1 4 4 4 2 1 4 4 5 7 7 8 8 8 7 6 5 7 7 6 4 4 2 2
1 1 1 0 0 -1 -0 -1 -1 -0 -1 -1 -0 -1 -1 -1 -1 1 -2 -2 -2 2 0 5 5 4 2 1 2 3 2 5 7 7 9 8 8 9 7 5 4 4 5 4 2 1 0
1 1 1 -0 -0 -2 -0 -1 -0 -2 -2 -1 -1 -1 -1 -0 0 -0 -1 -0 -0 1 1 2 5 4 1 3 3 2 2 5 7 7 6 7 8 7 7 6 6 5 5 4 2 1 0
1 1 1 -0 -1 -2 -2 -1 -1 -0 -0 -1 -1 -2 -1 0 1 0 -0 0 -0 0 1 2 5 5 3 2 3 3 2 5 6 6 5 7 5 5 4 4 3 3 4 3 3 1 -1
0 0 1 -0 -1 -2 -1 -1 -1 0 -0 -1 -0 -1 -2 0 1 1 1 -0 0 1 3 5 5 4 4 3 3 2 4 4 4 6 4 4 1 3 4 4 2 4 1 1 2 2 4
0 0 1 -0 -1 -3 -2 -2 -1 -1 -1 -1 -2 -0 0 1 1 1 1 1 1 1 5 4 4 4 3 3 3 3 3 3 4 5 4 5 4 2 4 3 1 3 0 1 1 2 1
-0 0 -1 -1 -0 -2 -1 -1 -1 -1 -1 -1 -0 1 1 0 0 1 0 2 0 2 5 5 5 4 4 3 3 3 2 2 3 4 3 2 0 1 1 0 1 0 1 1 2 1 1
-0 -0 -0 -1 -1 -1 -2 -1 0 -0 0 1 1 1 1 1 1 0 1 1 1 2 3 4 6 4 4 4 4 4 4 3 5 7 7 5 3 -0 0 2 1 -0 1 1 1 2 2
-0 -1 -1 -0 -1 -1 -1 -1 -0 0 2 -0 0 1 1 -0 1 0 1 0 2 5 5 4 4 3 5 3 4 4 4 5 3 3 4 4 5 2 -0 1 3 1 0 1 1 4 3
-1 -1 -0 -1 -1 -1 -1 -0 -0 1 0 -0 0 1 1 2 1 2 2 2 3 4 4 5 3 5 4 4 5 4 4 4 2 1 2 3 3 1 -0 -0 0 3 2 0 2 1 0
-1 -1 -1 -2 -1 -1 -1 -1 0 1 -1 -1 -0 0 1 1 0 2 2 4 3 3 2 1 4 3 5 4 5 4 3 1 1 0 -1 2 4 2 1 0 0 0 0 3 1 -0 3
-1 -4 -2 -2 -2 -2 -2 -2 0 0 -1 -2 -3 -0 1 1 1 1 3 2 4 2 1 1 3 1 2 3 2 2 3 1 -0 -0 -1 0 1 3 2 2 3 3 3 2 1 0 2
-4 -9 -2 -2 -1 -1 -1 -11 0 -0 -1 -2 -1 -1 -0 0 1 3 3 2 2 3 2 1 -1 -0 1 2 2 2 2 1 -1 -1 1 -0 2 2 4 1 -0 1 2 1 1 -1 1
-5 -16 -4 -4 -4 -1 -1 -14 0 1 -1 -2 -0 1 1 1 1 3 2 2 2 4 2 1 0 -1 -1 1 2 0 1 -0 -1 -0 1 0 2 2 2 2 1 2 1 1 1 2 0
-6 -12 -9 -7 -16 -7 -9 -15 0 1 -1 0 1 -1 1 2 2 3 3 4 3 1 0 -2 -1 -2 -1 0 -1 2 2 1 -0 0 -1 -1 2 -0 2 1 1 2 2 2 2 3 3
-5 -5 -12 -4 -26 -19 -19 -16 -2 1 0 0 1 1 2 0 2 2 3 3 3 4 1 -0 -0 -1 1 3 2 3 2 1 1 1 1 1 1 1 2 2 2 2 2 2 3 2 4
-4 -4 -9 -3 -19 -25 -24 -19 -11 -0 1 -0 1 2 1 1 1 1 2 2 3 3 2 3 4 3 2 4 3 2 2 1 2 1 1 0 1 3 3 2 3 3 2 2 2 2 2
-14 -1 -9 -4 -5 -23 -22 -24 -18 -5 0 1 1 2 2 1 0 1 1 1 2 2 2 2 2 4 4 4 3 1 -0 -0 -0 1 2 2 2 5 4 2 3 5 4 3 3 3 3
-17 -2 -3 -4 -2 -9 -20 -17 -20 -16 -2 1 1 1 2 1 1 0 -0 1 1 2 2 3 3 3 4 3 3 2 2 1 0 0 1 4 4 5 4 3 4 3 1 2 3 4 4
-15 -8 -1 -5 -2 -3 -4 -11 -7 -17 -14 -2 1 1 1 1 2 1 2 2 2 2 3 3 4 3 3 3 4 5 5 4 4 1 3 3 5 5 6 5 3 2 4 5 5 4 3
-13 -9 -2 -2 -3 -2 -3 -3 -4 -15 -20 -11 0 0 1 1 1 2 3 0 1 2 2 3 3 2 3 3 3 4 6 4 7 5 2 4 4 6 6 6 6 1 1 2 2 5 2
-8 -10 -2 -2 -3 -2 -2 -3 -3 -2 -15 -17 -2 -1 0 1 2 3 3 3 1 1 2 3 3 3 3 3 5 3 2 2 6 6 6 6 6 6 6 7 4 1 -0 3 6 2 2
-14 -10 -2 -1 -3 -3 -2 -3 -2 -2 -2 -10 -10 -2 -1 -1 0 0 2 3 3 1 2 2 3 3 3 3 3 3 3 3 4 3 5 6 6 6 6 6 5 -1 3 4 1 1 2
-5 -9 -4 -1 -2 -5 -2 -2 -2 -2 -3 -4 -5 -9 -6 -3 -1 -0 0 1 4 4 4 3 3 3 3 3 2 2 4 4 3 4 2 5 3 4 3 3 -1 -1 1 1 2 2 1

GFSGBSN_850_dewp_033.txt.gz
Dewpoint
3 3 3 3 2 3 2 1 1 -0 -1 0 1 -1 -2 -2 -2 -0 -0 0 -0 1 1 2 5 6 6 4 1 8 8 5 6 7 8 9 8 6 6 5 4 4 3 3 3 2 2
3 2 2 2 2 1 1 0 0 0 1 1 1 -1 -1 -2 -1 -0 -2 -2 -1 -2 1 1 3 5 6 4 1 3 8 5 7 7 7 8 7 6 5 3 4 3 3 3 2 2 2
3 2 2 2 2 1 -1 0 0 0 1 1 0 -0 -2 -2 -0 -2 -3 -2 -1 0 1 2 3 5 5 4 -0 5 6 5 7 8 7 8 7 6 5 4 3 3 3 3 3 3 3
2 2 2 2 2 -0 0 -0 -2 -1 -1 -0 -0 -2 -3 -3 -3 -2 -3 -4 -3 -4 -0 0 3 5 5 4 3 4 6 7 6 6 6 5 7 6 5 4 4 4 4 6 3 3 2
2 2 2 1 0 -0 0 -1 -1 0 -1 -0 -1 -0 -1 -2 -3 -2 -2 -2 -3 -4 -0 -0 2 4 4 3 2 5 6 7 7 7 7 4 6 7 5 5 5 4 6 6 4 2 2
2 2 1 2 0 -1 -1 -1 -2 -0 -2 -2 -0 -1 -0 -1 -0 0 0 -1 -5 -5 -4 -1 1 4 4 3 1 5 5 6 7 8 8 7 7 7 5 5 6 6 6 5 4 1 3
1 1 1 1 0 -1 -1 -2 -1 -0 -1 -0 0 -1 -1 -1 0 1 -0 -2 -2 1 -1 0 4 3 4 3 1 5 5 5 7 7 9 7 9 9 7 5 4 4 5 5 3 1 1
1 1 0 1 -0 -1 -2 -1 -2 -2 -0 0 -1 -1 -2 -1 -1 1 1 -1 -2 0 0 0 4 3 4 3 2 4 4 5 7 8 7 8 8 6 6 5 6 6 6 5 2 1 0
1 1 1 1 -1 -1 -1 -1 -1 -1 -1 -0 -2 -3 -2 -1 1 -0 -1 -1 -1 0 1 0 2 4 4 3 3 3 3 6 6 7 6 7 7 6 7 7 7 3 4 3 3 1 -1
1 1 1 1 -0 -0 -1 -0 -1 -0 -1 -0 -1 -2 -2 1 1 1 1 -2 -0 1 2 4 4 5 3 2 3 3 3 5 5 6 5 6 4 6 7 7 3 4 1 2 2 2 4
0 1 0 1 0 -1 -2 -0 0 0 1 1 1 1 1 1 1 1 -0 -1 0 1 5 3 5 4 3 3 2 3 4 3 5 5 5 6 4 6 6 4 1 3 0 1 1 2 1
-0 0 0 -0 -1 -1 0 -1 0 1 1 0 0 1 0 0 1 0 1 1 1 2 4 4 5 5 4 3 3 4 3 3 3 4 3 3 0 1 1 1 0 0 0 0 2 1 1
-0 0 0 -1 -0 -1 -0 -0 1 1 0 -0 -1 -1 -1 -2 -1 1 0 1 2 2 3 4 5 4 3 4 4 4 4 4 6 7 7 4 3 -0 0 2 0 -0 1 1 -1 1 1
0 -1 -1 -1 -0 -2 -0 0 1 1 0 1 0 -2 -2 -1 -0 1 1 1 3 4 5 4 4 3 5 4 4 4 4 5 2 4 6 6 6 2 -0 1 2 1 1 1 -2 2 2
-2 -1 -1 -1 -2 -2 -0 -0 1 1 0 0 -1 -1 -2 -0 0 1 2 1 3 4 5 4 3 5 4 4 5 6 4 4 2 1 3 2 3 1 -0 0 0 3 1 -1 2 1 0
-4 -1 -1 -1 -2 -2 -2 -1 1 -2 -1 -1 -1 1 1 1 1 2 1 4 4 3 1 1 4 3 5 5 5 6 4 1 1 1 -1 1 3 2 1 -0 0 1 0 1 -0 0 2
-11 -6 -1 -3 -23 -19 -11 -3 0 -2 -3 -3 -3 -1 -0 1 1 1 2 3 4 2 2 1 3 2 2 3 3 2 3 1 -0 0 -1 0 1 3 2 2 3 2 2 1 1 -0 0
-23 -21 -2 -3 -28 -24 -16 -5 -0 -1 -3 -2 -2 -2 1 -0 1 1 3 2 2 3 3 -0 -1 0 2 1 1 1 2 1 -1 -1 1 -0 2 3 3 1 -0 1 2 1 1 -0 1
-17 -22 -12 -9 -19 -29 -21 -10 -0 -0 -2 -3 -1 -0 1 1 3 4 3 3 2 4 2 0 -0 -2 -0 1 2 0 1 -1 -1 -1 0 -0 1 0 3 1 0 2 1 0 -0 1 -1
-16 -19 -18 -20 -18 -31 -27 -17 -1 -0 -1 -1 0 -2 -0 1 2 3 3 4 3 2 -1 -1 -1 -1 -1 0 -1 2 2 2 -0 -1 -1 -1 1 -0 1 0 1 1 2 1 1 2 1
-14 -17 -17 -19 -22 -27 -29 -25 -9 -1 -1 -1 1 1 2 1 1 1 2 2 3 4 1 -1 -1 -1 0 2 2 3 2 1 1 1 1 -0 1 0 1 1 1 1 2 2 2 2 2
-12 -13 -12 -17 -25 -23 -25 -27 -20 -2 -0 -1 1 2 1 1 1 0 1 2 3 3 2 3 -0 1 2 4 2 3 1 1 1 0 1 0 2 2 1 1 2 3 2 2 2 2 2
-9 -10 -9 -11 -20 -23 -24 -23 -24 -7 -0 0 1 1 2 1 0 0 1 1 1 1 2 2 3 3 4 4 2 -0 -1 -0 -0 1 1 1 2 4 4 2 3 4 3 3 2 2 1
-8 -8 -1 -8 -13 -14 -16 -19 -20 -20 -2 1 0 1 2 1 1 1 1 0 2 2 2 3 3 3 4 3 2 2 1 0 0 0 0 2 4 5 4 2 3 1 1 1 2 2 2
-3 -8 -2 -6 -8 -14 -4 -9 -11 -11 -17 -1 0 0 1 1 1 1 2 2 2 2 3 3 4 3 3 3 3 4 4 3 3 1 2 2 4 4 5 4 2 2 4 4 5 3 2
-2 -7 -3 -2 -2 -8 -2 -2 -7 -3 -15 -12 -0 0 1 1 0 2 3 1 1 2 1 3 3 3 3 3 3 5 5 4 6 5 3 3 3 6 6 6 6 1 1 2 2 5 1
-2 -3 -5 -2 -1 -5 -3 -2 -3 -2 -3 -13 -4 -2 -0 1 1 2 2 2 1 1 1 2 3 2 3 3 4 3 1 2 6 6 6 6 6 5 6 7 4 1 -0 3 5 3 1
-2 -4 -7 -3 -1 -2 -5 -2 -3 -3 -4 -5 -6 -7 -6 -1 -1 -0 1 2 4 2 2 2 3 3 2 3 3 3 2 2 3 3 5 6 6 6 5 6 5 -1 3 4 2 1 2
-4 -3 -5 -4 -1 -1 -3 -3 -2 -3 -3 -4 -5 -4 -5 -6 -9 -5 -1 -0 -0 1 4 3 2 2 2 2 2 2 4 3 2 4 2 5 3 4 3 3 -1 -1 -0 1 1 1 1

GFSGBSN_850_dewp_036.txt.gz
Dewpoint
4 3 3 3 2 3 1 1 0 -1 1 -0 1 1 1 -0 -1 -1 -1 -1 -1 -0 -2 1 1 3 5 6 5 7 8 6 -3 6 9 8 7 7 5 5 4 4 3 4 3 3 3
4 3 3 2 2 2 1 0 -1 -1 -1 0 -0 0 0 -2 -2 -2 -3 -2 -2 -1 -1 1 1 2 4 5 3 4 6 7 1 7 9 8 7 6 5 4 4 3 3 3 3 2 2
2 2 2 2 2 1 0 0 0 -1 -1 1 -1 -0 -2 -0 -1 -2 -2 -2 -2 1 1 1 1 1 4 5 4 2 4 6 3 7 8 8 7 5 4 4 4 2 3 3 3 3 3
2 2 2 2 2 1 -0 0 1 -1 -1 -2 0 -2 0 0 -1 -2 -2 -2 -2 -1 -0 -1 -1 3 5 4 3 3 5 7 7 7 7 7 7 6 4 4 4 4 4 6 3 3 3
2 2 2 2 1 0 -0 -1 -1 -1 -1 0 -1 -1 1 0 -1 -0 -1 -1 -1 -1 -1 -1 1 2 5 4 4 4 6 7 7 6 6 6 6 6 5 4 5 4 6 6 4 2 2
2 2 1 1 2 -0 -0 0 -0 -1 -2 0 -0 0 -0 -1 -1 -0 -0 -1 -4 -4 -4 -2 -1 3 4 4 3 3 5 7 7 7 7 6 6 6 5 5 6 6 6 5 5 1 3
2 2 1 1 1 -0 1 -0 -0 0 -0 -0 -0 1 -0 -1 -1 -0 -0 -1 -2 0 -0 -3 1 3 4 4 4 3 5 7 8 7 7 7 8 7 6 5 3 4 5 5 3 1 1
1 1 1 -0 1 1 1 0 -0 1 1 0 -0 -0 -0 -1 -1 1 -0 -2 -2 -1 -1 -4 1 2 4 3 4 4 3 6 7 8 6 7 8 5 5 4 5 5 6 6 3 1 0
0 1 1 0 1 1 1 -0 -0 1 1 1 1 1 0 -1 -0 1 0 -2 -2 -0 0 1 2 4 4 2 4 4 4 6 6 7 7 7 7 6 6 6 7 4 5 4 4 1 -1
0 1 0 -0 0 1 0 -1 0 1 1 1 1 0 0 0 -0 0 0 -2 -1 0 -2 3 3 5 4 3 3 3 5 5 6 7 5 6 6 7 7 7 5 7 1 2 1 2 4
-2 1 -0 -1 0 0 0 0 1 1 1 -1 -0 -0 0 -1 -0 1 -0 -1 -0 1 1 3 3 4 4 2 3 4 4 4 5 6 6 6 7 7 8 6 5 5 0 1 1 1 1
-0 1 -1 -1 -0 -1 0 0 -0 1 0 0 -1 -1 -1 -2 -1 -0 1 0 0 -1 4 4 4 5 3 3 4 4 4 4 3 4 3 4 4 5 5 4 3 0 -0 -0 1 1 1
1 -0 -1 -1 0 0 0 1 0 -1 0 0 -1 -0 -1 -1 -0 -0 0 0 0 2 3 5 5 3 3 5 4 4 5 5 6 7 7 5 3 -0 0 2 -0 -0 1 2 0 -1 2
-1 -0 -2 -3 -5 -0 -1 -0 -0 -3 -1 -1 0 0 -0 0 1 1 2 -1 1 5 6 4 3 3 5 4 5 5 5 5 2 5 6 5 7 2 -0 1 2 1 1 2 1 1 2
-0 -1 -1 -6 -29 -7 -9 -1 -2 -4 -3 -1 -0 -0 1 1 1 2 2 2 3 4 5 5 3 5 5 4 5 5 4 4 2 1 3 2 3 1 0 0 0 2 2 -1 1 -0 -0
-1 -0 -3 -3 -29 -23 -14 -2 -3 -3 -4 -4 -4 -2 0 1 1 2 1 4 4 3 1 1 4 3 5 4 4 5 3 2 2 0 -1 1 3 2 1 -0 -0 0 -0 1 -1 -2 1
-4 1 -10 -3 -16 -29 -17 -5 -2 -4 -4 -4 -3 -2 1 -0 0 0 3 3 4 3 2 1 2 2 3 3 3 4 3 1 -0 0 -1 -0 1 4 1 2 2 2 2 1 -0 -0 -0
-14 1 -2 -18 -10 -26 -28 -12 -1 -4 -5 -5 -1 -0 1 1 1 2 4 3 2 3 2 -1 -1 0 1 1 1 1 3 0 -1 -1 1 -0 1 3 2 0 -0 0 1 -0 0 -0 1
-15 -3 -1 -15 -17 -18 -29 -22 -4 -1 -3 -3 -3 -1 1 0 4 4 3 3 2 3 2 -1 -1 -1 -0 0 1 -0 0 -1 -1 -1 0 -0 0 1 2 0 0 2 1 -0 -1 -1 -1
-13 -9 -1 -11 -14 -18 -26 -30 -14 -2 -2 -2 -1 -0 0 1 2 2 3 3 3 2 -0 -1 -1 -1 -1 0 -0 1 1 1 -0 -1 -1 -1 -0 -0 1 -0 1 2 2 1 0 1 1
-9 -9 -0 -6 -9 -15 -25 -29 -26 -3 -1 -1 1 1 1 1 1 0 1 2 3 3 1 -1 -1 -1 -0 2 2 2 2 1 1 1 0 -0 1 0 1 0 1 1 2 2 1 1 1
-4 -8 -2 -1 -4 -9 -21 -27 -28 -9 -1 -1 1 1 2 1 0 -0 -0 1 3 2 2 1 -0 0 2 2 1 3 1 1 1 0 1 -0 2 2 1 2 2 2 2 1 2 1 1
-3 -4 -8 -0 -2 -5 -17 -18 -27 -21 -1 0 1 1 1 0 -0 0 0 1 1 1 2 3 2 3 4 4 2 -0 -1 -1 -0 1 1 1 2 2 1 2 2 3 3 2 2 1 1
-3 -3 -5 -1 -1 -5 -13 -7 -11 -18 -7 0 0 1 1 1 0 1 1 1 2 2 2 3 2 2 3 2 2 0 -0 -0 -0 0 -0 2 3 3 4 2 3 0 1 1 1 1 0
-3 -3 -5 -3 -1 -3 -8 -5 -5 -3 -15 -1 -0 -0 0 1 0 0 2 2 2 2 2 3 3 3 3 3 3 4 4 3 2 1 2 1 3 3 4 4 2 2 3 3 3 3 1
-2 -1 -3 -2 -1 -1 -5 -4 -5 -2 -5 -9 -2 -1 -0 1 -1 1 1 2 1 1 1 3 3 3 3 2 3 4 4 3 6 5 2 3 2 4 5 6 5 1 2 2 1 4 1
-1 -2 -2 -3 -2 -0 -2 -7 -3 -4 -3 -6 -7 -10 -2 -0 -0 1 1 2 2 1 0 1 3 2 3 2 3 3 2 1 5 5 6 6 6 6 5 6 4 0 -1 2 5 3 1
-2 -3 -3 -2 -3 -1 -1 -2 -6 -4 -4 -4 -4 -5 -6 -5 -6 -5 0 2 2 2 1 2 3 2 2 3 3 3 1 2 3 3 3 4 5 6 4 6 5 0 3 4 2 1 1
-3 -4 -3 -3 -4 -1 -1 -1 -2 -5 -3 -4 -4 -4 -4 -4 -9 -12 -14 -9 -2 -0 3 3 1 1 2 1 1 1 3 2 1 4 1 5 2 3 2 2 -1 -0 -0 1 0 1 1

GFSGBSN_850_dewp_039.txt.gz
Dewpoint
3 3 3 3 2 2 2 1 1 0 -0 -0 -1 -1 -1 -1 1 -1 -2 -2 -1 -1 -1 0 0 0 -1 4 5 6 7 7 7 6 8 8 8 7 7 5 4 4 4 3 2 3 3
2 3 3 2 1 2 1 1 0 -1 0 -0 -1 -0 -1 -1 -1 0 -3 -2 -3 -2 -1 -1 0 0 0 5 5 5 4 4 5 7 8 8 8 7 5 5 4 4 3 3 3 3 2
2 3 2 2 1 2 1 -0 0 -1 -0 -1 0 -1 -1 -1 0 -1 -2 -3 -2 -3 -2 0 -0 0 1 3 4 3 4 4 5 8 8 8 7 6 4 4 3 3 4 3 3 3 3
3 3 2 2 2 2 0 0 -0 -0 -1 -1 -0 -2 -0 1 0 -1 -2 -1 -1 -1 -2 -2 -1 1 2 2 5 4 4 5 7 7 7 7 6 5 4 3 4 4 3 6 3 3 2
3 2 2 1 2 2 1 1 1 0 0 0 0 -1 -0 1 -0 -1 -1 -1 -1 -1 -0 -2 -1 2 3 4 4 3 5 8 7 7 6 6 6 6 4 5 6 4 6 5 4 3 3
2 2 2 1 1 2 1 1 1 1 1 2 0 0 0 -1 -2 -1 -1 -2 -3 -4 -3 -2 -1 1 2 4 3 4 4 7 6 6 6 6 6 6 5 5 7 7 6 5 3 1 3
2 1 1 1 1 1 1 1 1 1 2 2 2 1 -0 -1 -1 -0 -2 -2 -2 -1 -3 -3 -2 1 4 4 4 4 4 6 7 6 7 6 7 7 7 4 2 4 5 5 3 1 1
2 1 1 1 1 1 1 1 2 1 2 1 1 2 1 1 -2 -1 -0 -2 -2 -1 -1 -3 -2 -1 3 5 4 4 5 7 7 7 6 7 7 4 5 4 4 4 5 5 3 1 1
1 2 1 -0 1 1 1 2 2 2 1 -1 -1 -1 -0 -0 1 1 1 -2 -3 -1 -0 1 2 3 4 3 4 4 4 7 3 5 6 6 6 4 5 6 6 5 6 5 4 1 -1
0 1 1 -0 1 1 0 1 2 2 0 -2 -2 -1 -2 -1 -1 -0 0 -2 -2 -0 -2 3 3 5 4 4 5 4 6 6 7 4 6 6 6 6 6 6 5 6 2 2 2 3 5
-4 1 -1 -1 0 1 1 2 2 -1 -1 -3 -2 -2 -1 -1 -1 -1 -1 -1 -2 0 -0 3 4 4 3 3 4 4 5 4 6 6 6 6 7 8 7 7 4 5 1 1 1 2 1
-11 -3 -3 -2 -2 -0 1 1 -2 -3 -3 -2 -2 -1 -1 -1 -1 -0 -0 -0 -0 -3 4 4 4 4 3 4 5 5 4 4 4 4 4 5 4 6 6 5 3 -0 -0 -0 -0 1 4
-10 -7 -9 -10 -6 -2 -0 1 -3 -5 -4 -2 -1 -1 -0 0 0 1 1 1 -2 2 3 4 5 3 3 5 5 5 5 5 6 7 7 6 5 3 4 4 3 2 3 5 2 3 4
-7 -6 -13 -13 -12 -16 -4 1 -2 -6 -5 -4 -2 -1 0 1 1 1 1 -2 4 5 6 4 4 4 5 4 5 5 5 5 2 5 6 6 7 3 0 2 4 3 2 4 3 -1 1
-10 -8 -15 -14 -18 -25 -19 -2 -1 -5 -6 -6 -5 -4 1 1 1 2 1 4 3 4 3 4 2 4 4 4 5 5 5 4 2 1 4 3 5 1 0 0 0 2 3 -2 1 -0 1
-11 -11 -10 -16 -22 -27 -31 -15 -2 -2 -5 -5 -2 -3 1 1 1 1 1 4 4 3 1 1 3 3 5 4 5 4 3 2 2 -0 -1 1 5 2 1 -0 -0 0 -1 3 0 1 2
-12 -11 -12 -14 -20 -25 -29 -30 -10 -2 -4 -5 -1 -2 1 0 -0 1 2 3 3 2 1 0 2 3 3 3 3 4 2 1 0 0 -1 -0 2 4 1 2 2 2 2 0 -1 -0 1
-12 -11 -8 -10 -15 -22 -25 -31 -24 -3 -4 -5 -2 -0 0 -0 1 2 4 3 2 3 2 -1 -1 0 1 1 1 2 1 0 -1 -1 1 -0 1 4 3 0 -0 0 1 -1 1 1 0
-9 -9 -6 -7 -6 -14 -23 -26 -32 -9 -2 -3 -3 -1 1 -0 1 2 1 3 2 2 0 -1 -1 -1 -1 0 2 -0 1 -1 -1 -1 0 -1 0 1 1 0 -0 2 1 -1 -2 -0 2
-5 -6 -6 -3 -5 -5 -15 -24 -30 -21 -2 -2 -1 -2 0 0 1 2 2 2 2 1 -0 -2 -1 -2 -1 -0 -0 1 0 1 -1 -1 -1 -2 -0 -0 -0 -0 1 2 2 -0 0 2 1
-3 -3 -5 -2 -5 -5 -8 -20 -26 -29 -2 -1 0 1 1 0 0 0 1 1 3 3 1 -1 -1 -1 -0 1 2 2 2 2 1 1 -0 -0 1 0 1 -0 1 1 2 2 1 0 1
-3 -3 -4 -4 -3 -3 -6 -13 -21 -30 -4 -1 1 1 1 1 0 -0 -0 1 2 2 2 1 -0 0 1 1 0 2 1 1 1 0 0 -0 3 1 1 2 1 3 1 1 2 1 1
-4 -3 -4 -4 -2 -2 -5 -9 -12 -24 -10 -0 0 1 1 -0 -1 -0 0 1 1 1 2 3 1 2 3 3 2 1 -1 -1 -1 1 1 1 2 1 1 1 2 4 2 2 1 1 1
-2 -4 -5 -5 -2 -1 -4 -5 -5 -7 -18 -1 -0 0 0 0 -0 0 1 1 2 2 2 3 2 2 3 2 0 -0 -0 -0 -0 -0 -1 2 2 1 3 1 4 0 0 0 1 1 0
-2 -2 -1 -2 -1 -1 -2 -5 -3 -1 -9 -8 -1 -1 -0 -0 -1 -0 1 2 2 1 2 3 3 3 3 2 2 3 4 2 2 1 1 1 2 3 4 4 1 2 2 2 2 3 -0
-3 -1 -2 -2 -3 -1 -1 -3 -4 -4 -4 -8 -10 -3 -1 -1 -1 0 1 1 1 1 1 3 3 3 3 2 3 4 4 3 5 4 2 2 1 2 4 5 5 1 3 2 1 5 1
-2 -3 -3 -3 -4 -4 -1 -1 -3 -5 -4 -5 -5 -8 -4 -1 -2 0 -0 1 2 0 -0 1 3 3 3 1 3 3 2 1 4 3 5 5 5 5 4 4 2 -0 1 3 6 4 -0
-3 -3 -4 -4 -4 -4 -2 -1 -1 -2 -4 -4 -5 -5 -5 -6 -10 -7 -1 1 2 2 1 1 2 2 1 3 3 4 1 1 3 2 3 3 5 5 4 5 4 0 2 6 3 1 1
-0 -1 -2 -3 -2 -2 -4 -3 -1 -2 -4 -4 -5 -3 -3 -3 -8 -8 -8 -10 -8 0 1 3 2 1 1 1 1 1 2 1 1 4 1 5 2 3 2 1 -2 0 1 1 0 1 1

GFSGBSN_850_dewp_042.txt.gz
Dewpoint
2 3 2 2 2 1 2 2 1 0 1 0 0 0 -0 -1 -2 -3 -0 0 -2 -0 -2 -1 1 1 -0 1 3 5 7 5 7 7 7 7 6 6 6 4 4 2 2 1 1 3 3
2 3 2 2 2 2 2 2 1 0 0 1 -1 -1 -1 -1 -1 -0 -1 -1 -1 -0 -3 -1 -0 1 1 1 2 4 5 5 8 6 7 7 4 5 5 4 4 2 2 1 1 2 3
3 1 2 1 2 2 2 2 2 1 2 1 1 1 -2 -1 -0 0 -1 -1 -1 -0 -2 -2 -0 1 2 -1 4 4 5 5 7 6 6 7 5 5 4 5 4 3 3 2 2 1 1
2 2 2 1 1 2 2 2 1 1 1 1 1 1 -1 -2 0 -2 -1 -1 -1 -1 -0 -2 -3 -0 0 -3 4 5 4 4 6 6 6 8 6 5 4 3 3 3 2 5 -0 2 2
1 2 2 1 1 2 2 1 2 1 2 0 -0 1 1 0 -1 -1 -1 -2 -1 -0 -0 -2 -1 1 -1 1 2 5 5 4 6 7 8 7 7 4 4 4 5 3 1 1 2 2 -0
0 1 1 1 1 2 1 0 1 2 1 2 1 -1 1 -2 -4 -1 -1 -2 -4 -4 -2 -1 -2 1 1 2 4 4 4 4 7 7 7 6 6 5 3 3 2 3 1 1 -0 1 3
-4 1 1 0 1 1 1 1 1 2 2 3 -1 0 0 1 -2 -1 -1 -2 -1 -1 -0 -3 -3 1 2 3 4 4 4 3 7 7 7 6 7 7 4 1 -0 1 1 -0 0 0 1
-7 -0 1 0 1 1 1 1 1 1 1 -1 -2 -3 -1 -0 0 -2 -2 -2 -3 -1 -3 -2 -2 -1 0 4 4 4 3 6 5 6 5 6 6 3 3 3 2 2 1 1 3 1 1
-12 -4 -2 0 0 1 1 1 1 1 -1 -2 -2 -2 -2 -1 -1 1 -1 -2 -2 -2 -1 1 1 2 4 4 3 4 5 6 6 6 6 6 4 2 4 4 4 4 2 4 3 2 -0
-11 -6 -10 -4 -1 -1 1 1 2 -2 -3 -2 -2 -3 -5 -4 -2 0 -1 -2 -3 -1 3 4 3 4 4 4 4 5 5 4 4 6 6 5 5 3 3 4 3 6 3 3 3 3 2
-10 -9 -10 -7 -7 -4 -0 2 2 -2 -4 -2 -1 -1 -4 -6 -3 0 -1 -3 -2 0 4 3 3 4 4 4 5 5 3 6 4 4 5 6 6 5 4 4 3 3 1 2 2 3 3
-9 -12 -15 -14 -11 -18 -6 -0 -1 -0 -3 -2 -1 -0 -0 -1 -4 -2 -0 -1 -1 3 5 4 4 4 4 4 5 5 6 4 5 5 4 5 5 6 6 3 3 -0 1 0 1 2 7
-9 -10 -15 -19 -21 -23 -15 -4 -4 -3 -4 -4 -4 -3 0 1 0 0 0 1 5 5 3 5 5 3 5 5 5 4 4 5 7 7 6 5 5 5 4 5 3 2 4 8 8 8 6
-10 -10 -12 -18 -21 -26 -31 -15 -4 -4 -4 -4 -4 -4 1 1 1 1 1 2 5 5 4 3 3 3 6 5 5 5 4 6 3 5 6 8 7 5 4 5 6 5 5 6 6 2 0
-11 -10 -11 -13 -19 -24 -27 -32 -12 -3 -5 -6 -2 -1 1 1 1 1 3 5 5 5 3 3 1 3 4 4 5 5 5 4 2 2 5 5 6 2 1 1 4 5 7 -1 2 0 3
-12 -10 -7 -7 -7 -20 -25 -30 -32 -7 -5 -5 -2 -2 1 0 0 1 4 5 5 3 1 0 2 2 3 4 4 4 5 2 1 -1 -1 2 6 2 0 0 -0 1 -1 5 5 6 3
-11 -8 -6 -6 -5 -5 -20 -27 -31 -27 -4 -5 -1 0 0 -0 0 2 4 5 3 2 1 0 2 2 2 3 3 3 2 1 -0 -0 -1 0 3 4 2 3 3 2 2 1 1 0 1
-9 -6 -6 -5 -6 -7 -5 -23 -29 -31 -8 -5 -2 6 0 -1 3 3 4 3 2 2 1 -1 -0 1 1 2 2 2 0 1 -0 -1 1 -0 3 5 4 0 -0 0 1 -1 2 3 1
-6 -4 -5 -4 -5 -7 -9 -6 -27 -30 -8 -3 -2 -1 -0 -1 5 4 2 3 2 1 -0 -1 -1 -1 -1 0 2 1 1 -0 -0 -1 0 -1 2 5 4 2 1 2 1 -1 -1 1 4
-5 -3 -3 -4 -4 -6 -9 -10 -16 -29 -13 -1 -0 5 1 0 2 2 3 2 1 2 -0 -2 -1 -2 -1 -0 -1 1 1 1 -0 -0 -1 -2 -0 2 1 2 2 4 2 0 2 5 2
-7 -3 -3 -4 -5 -6 -8 -9 -8 -26 -20 -1 0 2 1 4 2 1 2 2 2 2 1 -1 -1 -2 -2 0 0 1 1 1 0 1 -0 -0 5 2 0 0 1 2 2 2 3 1 4
-10 -7 -3 -5 -5 -4 -4 -6 -8 -23 -20 -1 2 1 1 1 0 0 1 2 3 2 2 0 -1 -1 -0 -0 -2 1 1 0 -0 1 -0 -0 5 3 4 2 2 3 1 1 1 1 1
-10 -3 -3 -4 -5 -1 -2 -5 -10 -14 -15 -1 0 0 1 0 0 0 1 1 1 2 2 2 -1 1 2 2 2 0 -1 -1 -1 -0 1 1 3 4 4 2 2 4 2 1 1 1 0
-3 -2 -4 -4 -3 -2 -1 -3 -3 -4 -11 -2 -1 -0 0 1 0 0 1 1 2 2 2 3 2 1 2 -0 -0 -0 -0 -0 -0 -0 -1 2 3 4 4 3 6 1 -0 0 1 -0 -0
-3 -3 -3 -3 -3 -3 -0 -2 -3 -4 -5 -10 -3 -2 -1 0 -1 -1 1 1 2 2 2 3 3 3 1 2 2 2 2 2 1 1 0 -0 2 4 4 3 1 -0 1 2 2 2 -1
-3 -3 -3 -4 -4 -5 -3 -0 -2 -3 -5 -7 -8 -8 -1 -2 -2 -0 0 1 2 2 1 3 3 3 3 3 3 3 4 2 4 3 2 1 1 3 4 4 5 2 2 1 1 6 1
-2 -3 -3 -4 -4 -4 -5 -1 -1 -1 -4 -6 -6 -7 -8 -2 -3 -2 -0 1 2 1 1 2 3 4 3 3 3 3 3 1 4 3 5 4 4 4 3 3 1 -1 2 3 8 6 1
0 -0 -1 -3 -3 -3 -3 -4 -2 -1 -2 -4 -4 -5 -4 -4 -9 -8 -2 -1 2 2 2 2 3 3 3 4 3 3 2 2 3 1 2 2 4 5 3 4 3 -1 3 5 3 1 3
0 -1 -1 -2 -3 -3 -2 -4 -4 -1 -1 -2 -3 -4 -3 -3 -6 -8 -8 -8 -10 -2 -0 2 3 2 2 3 3 2 2 1 2 4 1 3 1 1 1 1 -2 1 1 2 1 0 1

GFSGBSN_850_dewp_045.txt.gz
Dewpoint
2 2 2 2 2 3 2 2 2 2 2 2 2 2 0 -2 -1 -1 -0 -2 -1 -1 -0 -1 -1 1 2 1 -1 5 4 6 8 7 6 7 3 5 4 2 1 2 -1 -1 -1 2 1
3 3 2 3 2 2 1 2 2 1 2 1 1 1 2 -0 -2 -0 -1 -1 -3 -4 -3 -1 -1 1 2 2 -2 4 6 6 8 8 4 5 2 4 3 2 1 1 1 0 -1 1 2
2 2 3 2 2 1 3 2 -0 1 1 1 1 -0 0 1 -2 -0 0 -3 -2 -0 -1 -3 -1 1 2 0 -0 1 5 6 6 8 4 4 2 4 4 3 2 2 1 1 -1 0 1
-1 2 2 1 2 2 2 -0 1 1 1 1 -0 -2 -1 1 -1 0 -3 -1 -1 -1 -0 -1 -2 2 1 -0 -0 3 4 6 7 7 3 5 5 3 3 3 3 3 2 4 0 1 0
-2 2 2 2 2 2 1 2 0 1 3 1 -0 -1 -1 -1 -0 -3 -2 -2 -3 -3 -0 -1 -0 1 -1 -0 -0 0 4 5 6 6 4 6 6 4 4 3 4 2 3 2 0 -0 1
-5 1 2 1 2 2 1 0 1 2 1 2 0 -3 -1 -0 -1 -3 -2 -3 -4 -2 1 1 1 0 -1 0 3 4 5 5 6 5 5 7 7 6 2 2 4 2 2 -2 -1 1 0
-9 -3 2 1 1 2 1 0 1 2 2 3 -0 -2 -0 0 0 -2 -2 -1 1 -0 -0 -3 -3 -1 1 1 5 5 5 4 6 5 6 6 7 7 3 -1 -3 -4 -0 -2 -3 -0 1
-9 -6 1 -1 0 2 1 1 2 2 3 2 0 -2 -2 0 -1 -3 -3 -1 0 1 -3 -3 -2 -2 -1 1 4 5 5 5 6 6 3 7 8 3 1 -1 -2 0 -1 -1 -1 -1 0
-8 -8 -5 -3 -4 1 1 0 2 1 -2 1 1 -3 -3 0 0 1 1 -1 -3 -2 2 -1 1 2 4 4 2 6 4 5 5 4 5 5 5 3 2 1 1 -0 0 -1 1 2 0
-8 -9 -8 -8 -11 -2 1 -0 2 1 -3 -1 1 -0 -5 -6 1 0 1 -4 -3 -1 4 3 3 4 5 4 4 5 4 4 4 5 5 6 2 6 4 3 -0 1 0 1 3 2 -1
-9 -9 -11 -13 -15 -17 -4 -1 -1 1 -4 -3 -1 -0 -0 -7 -0 1 -2 -4 -2 1 5 3 2 4 4 4 5 6 4 5 5 6 6 7 6 4 4 3 -1 2 2 3 3 3 3
-9 -9 -10 -12 -17 -24 -26 -11 -4 -1 -3 -4 -4 -3 0 1 -4 -5 -3 -2 1 5 6 5 4 4 3 4 5 6 5 5 5 4 4 5 5 5 4 2 0 1 2 2 2 3 7
-10 -10 -9 -8 -12 -22 -25 -29 -25 -10 -3 -4 -4 -4 1 1 2 -1 -3 2 5 6 3 5 5 4 5 5 5 5 5 6 6 6 6 5 4 5 4 4 2 2 3 6 7 9 5
-10 -10 -7 -6 -6 -6 -23 -26 -30 -26 -5 -5 -3 -0 1 1 1 1 3 3 5 5 5 3 4 4 6 5 5 5 5 7 5 6 7 8 7 4 3 5 5 4 3 6 5 5 4
-10 -9 -6 -6 -6 -7 -6 -19 -26 -31 -12 -5 -2 -0 1 1 1 1 3 5 6 6 2 2 1 3 4 4 5 4 3 3 3 3 7 8 7 4 4 4 4 6 8 -0 2 -1 1
-10 -8 -6 -5 -6 -7 -9 -8 -11 -27 -24 -5 -2 -1 2 0 1 3 4 5 5 2 -0 -1 2 1 3 3 3 3 3 2 2 -0 -1 3 7 4 3 4 3 5 2 5 6 7 3
-10 -7 -6 -5 -5 -6 -8 -11 -8 -17 -29 -5 -1 2 0 -1 3 3 5 5 1 1 0 0 1 1 1 2 3 2 2 1 -0 -1 -1 1 3 4 2 3 4 4 4 2 2 2 4
-10 -6 -5 -4 -5 -6 -7 -10 -10 -10 -27 -5 -1 6 0 -1 4 2 4 3 2 1 -0 -1 -1 0 -0 1 2 1 1 1 -1 -1 0 -0 3 5 4 0 -0 0 1 0 3 5 1
-9 -7 -4 -4 -6 -6 -6 -10 -10 -10 -26 -4 2 2 0 -0 5 4 2 2 1 0 -1 -2 -1 -1 -1 0 2 0 -0 0 -0 -1 -0 -1 3 6 4 2 1 2 1 0 -1 1 6
-9 -8 -6 -7 -5 -5 -7 -9 -8 -10 -27 -3 2 5 2 2 3 1 1 1 1 1 -1 -2 -2 -2 -1 -1 -1 1 1 1 -0 -0 -2 -2 0 3 3 3 2 4 2 1 2 6 2
-10 -11 -10 -6 -4 -7 -4 -4 -5 -15 -26 -3 2 3 2 5 2 1 1 1 1 1 0 -2 -2 -2 -2 -0 -1 -0 0 0 -0 0 -1 -1 6 4 0 0 2 3 2 2 4 2 4
-11 -11 -5 -5 -6 -2 -2 -3 -8 -20 -19 1 1 1 2 1 1 0 1 2 2 1 1 -1 -1 -3 -3 -2 -3 -1 -1 -1 -1 -0 -0 -0 5 4 4 1 1 3 1 1 1 1 0
-10 -6 -5 -4 -4 -2 -1 -3 -4 -15 -20 -0 -0 1 1 1 0 0 -0 1 1 1 2 1 -2 -2 -1 -0 -1 -0 -3 -3 -3 -2 -0 0 4 5 4 1 2 4 2 1 1 0 0
-6 -5 -4 -4 -4 -4 -1 -2 -3 -5 -11 -3 -1 -1 0 1 0 -0 1 1 1 1 1 -0 1 -1 1 0 -0 -1 -1 -2 -1 -1 -2 0 2 3 4 3 5 2 -0 -0 -0 -1 -1
-5 -4 -4 -4 -4 -4 -5 -2 -2 -2 -7 -5 -10 -3 -1 -1 -2 -1 -0 1 1 1 2 1 2 3 2 1 0 1 1 1 1 -0 -1 -2 0 4 4 3 1 -2 -0 1 2 2 -1
-4 -3 -3 -3 -4 -4 -4 -3 -2 -1 -4 -5 -8 -8 -2 -2 -3 -1 -0 1 2 1 1 2 4 4 3 3 2 2 3 0 2 2 1 -0 -1 2 3 3 4 3 1 -0 0 5 -1
-2 -1 -0 -1 -2 -3 -3 -3 -2 -1 -1 -3 -4 -7 -3 -4 -7 -3 -2 0 2 2 2 2 3 4 3 2 3 2 1 -0 2 2 3 3 2 4 3 3 1 -3 2 2 6 6 1
0 0 -1 -2 -2 -4 -3 -3 -3 -3 -1 -1 -2 -4 -4 -3 -4 -5 -4 -4 -3 2 2 2 3 3 3 4 2 2 1 1 1 -1 1 2 2 3 2 4 3 -2 3 5 3 2 4
-0 -1 -1 -3 -4 -3 -3 -3 -1 -2 -1 -1 -2 -2 -3 -2 -4 -6 -8 -7 -6 -2 -1 2 3 2 2 2 1 1 1 -1 -0 1 -1 2 -1 1 0 0 -2 -1 -0 2 2 2 2

GFSGBSN_850_dewp_048.txt.gz
Dewpoint
2 3 3 3 3 3 3 3 -0 -1 1 2 3 0 0 1 1 -1 -0 -1 -1 1 -1 -1 -2 -1 1 2 2 1 2 1 4 7 7 7 2 6 5 4 2 3 1 -1 -1 1 1
3 3 3 3 2 2 2 -0 1 1 2 3 2 0 2 1 1 -2 -0 -1 -0 0 -2 -1 -2 -1 1 3 -1 -0 4 7 4 7 5 7 1 4 3 2 3 1 1 1 -2 1 2
2 3 2 2 2 2 2 2 2 1 3 2 1 0 1 -0 0 -2 -0 -1 -4 -2 -2 -1 -1 0 2 1 0 2 2 7 6 6 5 6 2 2 4 3 1 1 2 2 0 1 2
-2 1 3 1 2 1 2 2 1 2 2 1 -0 1 1 -0 1 -1 -1 -4 -3 -3 -2 -1 -3 2 1 -1 -0 2 3 5 6 6 4 4 4 2 4 3 2 3 3 4 1 1 1
-5 -1 -3 -2 1 1 3 3 2 2 2 1 -0 -2 -0 -0 -0 -2 -6 -2 -3 -5 -2 -1 -2 2 -1 -1 -2 -0 2 5 6 6 5 4 5 5 5 5 5 4 5 4 3 -0 1
-8 -3 -4 -12 -2 -0 2 3 2 2 2 2 1 -3 -1 0 -1 -3 -2 -4 -5 -1 0 1 1 0 -1 -0 -2 -2 1 5 7 6 6 5 5 6 5 5 8 5 4 2 3 1 1
-8 -8 -9 -12 -2 -1 1 2 1 2 3 2 2 -4 -1 0 -4 -2 -2 1 1 0 0 1 -1 -1 1 2 1 0 5 5 7 7 6 6 6 7 5 3 1 0 1 1 -0 0 2
-9 -9 -8 -11 -9 -1 -2 0 -2 -1 3 -1 2 -0 -2 -1 -2 -3 -1 -1 -0 1 -1 -3 -3 -3 -1 0 4 4 5 5 7 7 4 6 7 3 3 1 0 -1 -1 0 -1 0 1
-9 -9 -9 -11 -14 -7 -4 -3 -3 -4 -4 -3 -1 1 -4 -3 -1 -0 1 -1 -3 -2 1 -0 1 2 3 3 3 6 4 5 6 5 5 6 4 2 2 2 1 -1 0 -1 0 1 0
-9 -10 -10 -8 -17 -21 -16 -7 -16 -5 -4 -5 -4 -1 -1 -1 0 -1 1 -5 -3 -1 3 3 3 3 3 4 6 4 4 4 5 4 3 4 3 4 4 3 1 1 -2 -1 2 3 4
-9 -10 -9 -7 -6 -10 -18 -20 -27 -26 -7 -4 -4 -4 0 -5 1 2 -4 -5 -2 1 6 3 3 3 3 5 4 5 4 4 5 4 6 7 5 6 7 5 0 1 2 3 3 4 4
-9 -10 -9 -6 -6 -6 -7 -15 -25 -29 -25 -5 -5 -4 -1 3 0 -3 -5 -3 2 4 6 5 4 3 5 4 5 5 6 3 5 5 4 5 5 5 5 5 3 2 3 3 3 4 7
-10 -10 -8 -6 -6 -8 -9 -9 -8 -21 -29 -6 -3 -1 0 1 3 3 1 2 5 5 4 5 5 4 5 6 5 3 4 5 6 6 6 5 5 4 5 6 5 3 4 7 6 6 6
-10 -10 -8 -6 -6 -7 -8 -10 -12 -9 -26 -9 -4 -1 0 1 2 1 3 4 5 5 5 3 4 4 6 4 5 5 5 6 5 5 7 7 6 5 3 5 5 4 3 6 5 6 5
-10 -9 -8 -7 -5 -6 -8 -10 -12 -12 -15 -15 -4 -2 1 1 1 3 3 5 5 5 3 3 3 3 5 4 4 5 6 6 5 6 7 7 6 4 3 4 4 5 8 0 4 -2 3
-11 -10 -8 -8 -5 -7 -8 -9 -11 -12 -10 -15 -3 -0 2 0 1 4 5 5 5 2 0 -1 2 2 4 4 4 4 3 1 2 1 0 4 7 5 4 4 4 5 4 5 6 6 4
-11 -9 -8 -7 -6 -8 -7 -8 -9 -9 -9 -16 0 2 3 -0 3 5 5 4 1 0 0 0 1 1 2 2 2 1 2 1 -1 -1 -1 1 4 6 5 6 6 6 5 3 3 4 6
-12 -6 -10 -8 -8 -8 -7 -8 -8 -8 -8 -23 3 5 3 0 5 5 5 4 1 0 -1 -1 -0 -0 0 1 2 1 2 1 -1 -1 1 1 3 6 4 1 1 4 5 3 6 5 2
-8 -5 -11 -10 -8 -6 -7 -5 -5 -8 -19 -15 2 2 3 -1 6 5 2 1 1 0 -1 -2 -1 -0 -1 -0 1 0 1 0 -1 -0 0 -0 4 5 4 2 1 3 2 4 1 4 6
-5 -9 -10 -9 -7 -7 -2 -3 -7 -19 -21 -5 3 5 4 3 2 3 2 1 1 1 -0 -2 -2 -2 -1 -0 -2 1 1 1 -0 -0 -2 -2 1 4 5 4 3 3 2 2 3 4 4
-7 -8 -8 -7 -6 -3 -1 -3 -7 -21 -10 2 2 3 2 5 3 2 1 1 1 1 1 -2 -1 -1 -1 -0 -1 -0 1 1 0 -1 -1 1 4 2 1 1 3 4 3 2 3 3 3
-6 -7 -7 -5 -5 -4 -2 -2 -4 -18 -9 -4 1 1 1 2 0 1 2 2 1 1 1 -0 -0 -2 -3 -2 -2 -1 -0 -0 0 0 -0 1 4 3 3 1 1 2 2 1 2 2 2
-6 -6 -5 -5 -5 -5 -3 -2 -2 -6 -13 -2 -2 -1 1 1 0 1 1 1 1 1 1 0 -0 -2 -1 2 0 0 -3 -3 -2 0 0 1 3 3 3 2 2 4 2 1 1 1 1
-7 -6 -4 -4 -4 -4 -5 -3 -1 -2 -11 -4 -4 -1 1 1 0 0 0 1 1 2 3 -0 1 1 0 -0 -0 -1 -2 -2 -2 -2 -2 0 3 3 3 3 4 1 -1 -0 0 -0 -0
-7 -5 -3 -2 -3 -4 -4 -4 -2 -2 -3 -5 -9 -4 -1 -3 -5 -2 -0 1 1 1 2 2 2 2 1 1 -1 1 1 1 -1 -1 -1 -2 2 5 3 3 1 -1 1 1 1 1 -2
-6 -3 -1 -2 -2 -3 -4 -2 -2 -3 -2 -3 -6 -8 -3 -2 -5 -6 -3 -1 2 2 2 2 3 3 3 3 2 2 4 0 3 2 1 -1 -0 2 3 3 4 4 0 -1 -0 6 -0
-4 -1 -0 -1 -2 -3 -3 -2 -2 -3 -1 -2 -1 -4 -3 -4 -7 -6 -3 -1 0 2 3 2 3 4 3 3 3 3 3 -0 2 1 4 3 3 4 5 4 1 1 1 1 6 5 1
-1 -1 -1 -2 -4 -4 -3 -3 -1 -2 -2 -3 -2 -2 -3 -2 -3 -4 -6 -5 -5 -4 3 2 3 3 4 4 3 3 1 0 0 -1 2 2 3 3 3 4 3 1 3 5 4 3 2
-0 -2 -2 -2 -3 -4 -2 -2 -2 -2 -2 -2 -2 -2 -2 -2 -4 -4 -4 -4 -7 -6 -3 -0 3 2 3 4 2 1 2 -0 0 2 -1 2 0 1 0 2 -1 0 1 2 2 2 3

GFSGBSN_850_dewp_051.txt.gz
Dewpoint
-0 2 3 2 2 3 3 3 3 1 3 3 2 2 1 1 1 1 -1 -0 -1 0 -1 -2 -2 -1 1 2 2 1 3 -1 2 5 6 8 6 7 6 6 5 5 3 3 3 5 4
-3 1 4 2 2 3 3 3 2 1 3 2 2 1 1 -1 -1 -0 -1 -1 -1 -1 -2 -2 -2 -1 1 3 0 0 3 4 6 6 7 6 3 5 5 5 4 3 3 3 2 2 1
-7 -4 0 -1 -0 3 3 3 3 1 2 1 0 -0 1 -2 0 -1 -1 -1 -6 -2 -2 -2 -3 -0 1 -1 1 3 3 6 6 5 6 6 1 5 4 3 3 3 4 4 3 2 2
-9 -7 -1 -2 -1 2 2 3 3 1 2 2 0 -5 -1 -3 0 -1 -2 -5 -6 -3 -3 -2 -2 0 0 -4 -0 1 3 6 6 6 5 4 3 4 3 3 2 3 3 6 3 2 1
-9 -7 -2 -2 -1 -1 2 3 3 2 2 2 1 -3 0 -0 -4 -8 -8 -4 -5 -6 -5 -2 -4 -1 0 0 -2 0 0 3 6 6 5 4 5 5 3 4 5 4 6 5 3 1 2
-9 -8 -7 -7 -2 -2 -3 2 1 2 2 2 2 -4 0 -2 -5 -3 -3 -5 -3 -1 -1 -1 1 1 -1 1 -0 -2 -0 3 6 6 7 5 5 5 5 5 7 6 6 4 4 2 2
-9 -9 -9 -8 -8 -12 -12 -8 -1 1 2 2 -0 -3 -3 -1 -5 -4 -2 -0 -1 -0 0 -0 -1 -0 -1 -0 0 -3 1 4 6 7 6 5 6 7 6 4 3 2 3 2 2 0 2
-9 -9 -9 -7 -7 -14 -18 -17 -21 -2 1 1 -2 -0 -7 -2 -2 -5 -1 -1 1 1 1 -2 -1 -2 -0 0 3 -1 2 6 7 7 6 6 6 4 4 3 3 2 2 2 -0 1 2
-10 -10 -9 -7 -6 -6 -8 -16 -24 -22 -12 -2 -2 -3 -2 -4 -2 -2 -3 -4 -2 1 1 1 2 2 2 2 3 2 5 5 6 6 5 6 4 2 4 3 4 3 0 0 1 1 0
-10 -10 -9 -7 -6 -8 -9 -9 -9 -20 -27 -9 -4 -3 -1 -4 -2 -1 -1 -5 -3 -1 3 3 2 3 2 4 4 5 5 5 5 5 4 3 3 4 4 5 2 3 -1 -1 3 3 4
-11 -10 -9 -7 -6 -7 -9 -10 -12 -10 -20 -21 -4 -4 -2 -0 -3 2 0 -5 -2 1 2 3 3 2 3 4 4 4 4 4 5 5 5 6 5 5 6 5 2 3 1 2 3 3 3
-12 -11 -9 -7 -6 -7 -8 -10 -11 -12 -9 -25 -4 -2 -1 1 1 1 -4 -3 3 -0 4 5 3 3 5 5 4 5 4 4 4 4 4 5 4 5 6 6 5 2 2 3 3 3 4
-12 -11 -9 -8 -6 -5 -8 -10 -9 -10 -10 -20 -5 -1 -0 1 2 3 2 1 2 1 3 3 5 5 5 5 4 3 4 5 6 6 6 5 5 4 5 6 5 4 3 7 6 4 4
-12 -10 -10 -7 -7 -6 -8 -9 -8 -8 -9 -17 -5 -2 1 1 1 1 2 2 3 4 4 3 4 4 5 4 5 5 5 6 5 5 5 6 6 5 4 5 6 5 2 5 5 6 5
-11 -9 -9 -7 -7 -7 -10 -8 -7 -7 -8 -16 -3 -1 1 2 1 3 3 2 4 4 3 4 4 4 5 4 5 4 4 6 5 5 5 7 6 4 4 4 5 6 7 1 3 1 2
-8 -11 -6 -9 -8 -9 -8 -7 -6 -7 -7 -19 -1 1 2 1 2 4 2 2 2 3 1 1 4 2 6 5 5 5 6 4 5 4 4 5 5 5 4 4 4 5 3 5 4 6 3
-8 -9 -6 -10 -8 -8 -8 -6 -5 -7 -7 -19 1 3 4 0 3 4 2 2 3 1 0 1 2 2 2 4 4 3 3 1 1 3 1 3 3 6 5 6 7 6 6 3 3 3 5
-12 -4 -8 -8 -7 -7 -6 -4 -7 -14 -9 -17 3 2 4 1 4 4 2 3 1 0 -0 -1 -1 0 1 1 0 1 3 1 -1 -1 2 1 3 6 5 4 4 5 5 3 5 4 1
-10 -6 -7 -7 -7 -6 -4 -5 -9 -20 -17 -8 1 2 4 2 4 3 2 2 2 1 -1 -1 -0 -1 -1 -0 2 0 2 0 -1 0 0 1 3 5 5 2 3 5 5 5 4 3 4
-7 -6 -6 -7 -6 -6 -5 -4 -7 -21 -8 0 2 3 4 4 2 3 2 2 3 0 1 -2 -2 -2 -1 -0 -2 1 2 0 -0 -0 -2 -1 2 2 3 2 3 4 4 5 6 4 3
-5 -4 -6 -6 -6 -6 -5 -5 -5 -18 -10 1 1 2 1 3 3 1 1 1 1 3 1 -2 -1 -1 -0 -0 -1 1 1 2 0 -1 -1 0 1 -1 1 2 2 3 2 4 4 3 3
-4 -5 -6 -5 -5 -5 -5 -4 -4 -11 -11 -10 -0 0 0 1 1 1 1 2 1 1 1 0 -0 -1 -2 -0 -1 0 1 1 1 -0 -0 0 2 1 0 1 1 2 2 2 2 2 2
-4 -6 -5 -4 -4 -4 -4 -5 -3 -5 -16 -11 -5 -1 -0 0 1 0 1 2 2 1 1 0 1 -0 -1 2 0 -1 -2 -2 -2 0 1 2 2 0 1 2 2 2 2 1 1 1 1
-5 -5 -3 -3 -4 -3 -4 -4 -3 -3 -5 -11 -6 -2 -1 0 -2 -2 0 1 2 2 3 1 2 1 -0 -1 -1 -2 -2 -2 -2 -1 -1 2 2 1 1 1 2 -1 -0 -0 0 -1 0
-6 -4 -2 -3 -4 -3 -4 -4 -4 -3 -3 -4 -7 -7 -2 -3 -4 -5 -3 -0 0 1 2 2 3 2 1 1 0 1 1 1 -0 -1 -1 -1 1 3 1 2 -1 -1 1 1 2 2 -1
-6 -2 -1 -2 -3 -4 -3 -2 -2 -2 -2 -3 -2 -4 -4 -3 -4 -5 -5 -3 1 1 2 3 3 1 2 3 3 3 4 -0 2 1 0 0 0 1 3 2 3 2 -0 -1 0 4 0
-5 -1 -1 -2 -4 -5 -4 -4 -2 -2 -3 -3 -2 -2 -3 -3 -5 -4 -5 -2 -2 0 2 3 3 3 3 3 3 2 1 -1 3 3 3 3 2 3 4 5 1 -2 -0 1 5 3 1
-1 -1 -1 -2 -4 -4 -4 -3 -3 -2 -2 -3 -2 -2 -2 -3 -3 -4 -4 -5 -6 -4 1 2 2 2 3 3 3 2 0 -1 1 -1 2 2 2 4 3 4 3 0 2 4 3 2 2
-1 -1 -2 -2 -3 -4 -3 -3 -2 -3 -4 -3 -2 -1 -2 -2 -3 -4 -4 -4 -5 -7 -6 -2 1 2 3 3 2 1 1 0 0 2 -1 2 -0 1 1 1 -2 2 2 2 2 3 2

GFSGBSN_850_dewp_054.txt.gz
Dewpoint
-6 -1 1 2 2 3 2 2 2 -0 2 2 3 -3 1 -1 -1 -1 -1 -1 -2 -1 -1 -3 -3 -3 1 1 2 2 1 4 3 6 7 5 6 6 7 6 7 5 5 5 6 6 6
-6 -4 1 1 2 3 3 3 3 1 2 2 4 -2 -2 0 0 -2 -2 -2 -3 -2 -2 -1 -4 -1 1 2 -1 2 4 5 -0 7 6 6 5 5 6 5 7 6 4 4 5 6 6
-8 -6 -3 -0 1 0 3 3 3 2 3 2 4 -1 -1 -2 0 -3 -2 -2 -8 -3 -2 -2 -3 -2 0 -1 0 2 5 4 5 7 5 6 2 6 4 5 4 4 6 4 3 3 3
-9 -8 -5 -7 -0 -0 -0 2 2 1 3 3 2 -3 -1 -2 -6 -4 -4 -5 -5 -4 -5 -4 -1 -1 -1 -0 -0 2 2 5 6 5 4 4 4 4 4 3 3 3 4 6 3 2 2
-9 -9 -8 -7 -4 -2 -0 -1 2 2 2 1 -1 1 -1 -7 -3 -4 -6 -5 -2 -3 -5 -2 -3 -2 -1 0 -0 0 2 4 7 6 5 4 5 4 4 4 5 4 6 6 4 2 2
-10 -9 -9 -7 -5 -4 -8 -7 -1 0 1 1 -2 -2 -3 -4 -3 -3 -4 -5 -1 -1 -1 -1 0 0 -1 -1 0 0 1 3 6 6 7 5 5 5 5 5 7 6 6 4 4 2 3
-10 -10 -10 -7 -6 -5 -5 -8 -8 -17 -3 0 -4 -2 -4 -2 -4 -3 -3 -4 -2 -2 -2 -2 -2 -2 -3 -1 1 2 0 3 5 7 7 5 6 7 5 3 2 3 3 4 2 1 2
-10 -10 -10 -7 -7 -7 -8 -9 -6 -8 -23 -10 -4 -4 -3 -5 -3 -4 -3 -6 -2 -1 0 -0 0 -0 1 -0 2 0 1 5 5 6 5 6 6 4 4 3 2 3 4 3 1 -0 2
-9 -10 -10 -8 -7 -7 -8 -9 -11 -8 -9 -24 -7 -4 -2 -4 -5 -5 -3 -5 -1 1 1 1 2 3 2 2 3 3 4 5 4 6 5 5 4 4 5 4 4 3 3 2 1 1 0
-9 -10 -10 -8 -7 -6 -7 -9 -10 -10 -11 -12 -10 -4 -3 -2 -1 -3 -3 -5 -2 -0 1 3 2 1 3 3 3 3 5 5 5 6 5 5 3 4 5 5 2 4 -1 -1 1 3 5
-8 -11 -10 -9 -7 -6 -6 -8 -8 -7 -9 -10 -11 -3 -2 0 -4 -1 -2 -4 -2 1 -0 3 3 1 3 4 3 4 4 4 5 6 5 6 5 4 5 4 2 3 -0 1 2 3 3
-8 -11 -10 -9 -7 -7 -6 -9 -8 -6 -7 -9 -12 -2 -0 1 2 1 -0 -3 2 -2 1 3 4 2 3 4 4 4 4 4 4 4 4 5 4 5 6 5 3 2 2 2 3 2 4
-10 -11 -8 -9 -6 -7 -7 -8 -6 -6 -6 -8 -11 -2 -0 0 2 2 2 -1 -1 2 1 2 5 5 4 4 4 3 5 5 6 6 5 6 5 4 5 5 4 3 3 6 6 5 5
-9 -9 -8 -6 -7 -7 -7 -7 -7 -6 -6 -7 -7 -2 1 1 1 1 2 -1 1 4 3 2 4 4 5 4 4 4 4 5 4 4 5 5 6 5 4 5 6 5 5 4 5 5 4
-8 -6 -7 -4 -7 -7 -7 -6 -6 -7 -8 -8 -4 -2 2 1 2 2 2 -1 1 2 3 4 4 5 5 4 5 5 5 4 5 4 4 6 6 4 4 5 5 7 6 1 2 1 1
-5 -8 -4 -6 -6 -6 -6 -5 -6 -10 -10 -13 -2 1 2 2 3 3 -0 1 2 2 1 1 4 3 6 5 5 6 6 4 5 4 2 4 6 5 4 4 4 6 4 5 3 6 3
-4 -9 -4 -5 -5 -6 -6 -5 -7 -12 -12 -12 2 3 3 1 3 4 -1 0 3 2 0 1 1 2 3 4 4 5 5 3 4 4 4 3 3 6 5 6 6 6 7 5 3 3 4
-7 -7 -4 -4 -5 -6 -6 -5 -6 -15 -14 -8 3 2 4 1 4 4 1 2 1 0 -0 -0 -1 -0 1 1 1 2 3 1 0 1 2 2 3 5 5 3 4 4 5 4 6 5 2
-8 -5 -4 -4 -6 -6 -6 -6 -6 -16 -14 -4 2 3 4 3 5 2 1 2 2 1 -1 -1 -0 -1 -1 -0 1 1 2 0 -0 -0 1 1 2 4 5 4 4 6 6 5 4 3 2
-6 -4 -3 -5 -6 -6 -6 -6 -6 -13 -12 0 2 2 4 3 4 3 2 2 2 1 0 -2 -2 -2 -1 -0 -1 1 2 0 -0 -1 -1 -0 2 1 3 2 3 4 6 5 5 3 3
-4 -3 -4 -5 -5 -5 -5 -6 -6 -13 -14 -2 -0 1 1 3 2 1 1 0 2 3 1 -1 -1 -1 -0 0 -0 1 2 1 -0 -1 -1 -1 1 -1 1 2 2 2 3 5 6 4 3
-3 -3 -5 -4 -4 -4 -5 -6 -5 -11 -17 -18 -2 -1 -0 0 1 1 0 2 1 1 1 1 -0 -1 -1 -1 -1 -0 1 1 1 -0 -0 -0 1 -0 -0 0 1 2 1 4 5 5 5
-2 -4 -5 -4 -4 -4 -5 -4 -4 -6 -16 -17 -6 -1 -0 -1 -1 0 1 2 2 1 1 0 -0 1 1 1 -0 -1 -1 -1 -1 0 0 1 1 -1 -0 1 1 2 1 1 2 2 3
-2 -5 -4 -3 -4 -5 -4 -4 -4 -5 -5 -9 -9 -4 -2 -1 -4 -2 -3 -0 1 1 3 2 2 1 0 -0 -0 -2 -2 -2 -1 -1 -1 2 1 -1 -1 0 1 -1 -2 -1 -0 -1 0
-3 -5 -3 -3 -5 -5 -3 -2 -3 -4 -4 -4 -4 -6 -5 -4 -4 -6 -5 -2 -1 1 1 2 3 1 1 0 0 1 1 0 -0 -1 -1 -0 0 3 1 0 -1 -2 1 1 1 1 -2
-4 -4 -3 -4 -5 -5 -4 -4 -2 -3 -4 -4 -4 -3 -4 -4 -5 -5 -5 -3 1 1 1 3 3 2 2 2 2 3 3 0 1 1 -0 0 -1 -0 3 2 3 -1 1 -1 -0 3 1
-5 -3 -3 -4 -4 -4 -4 -4 -3 -3 -4 -4 -4 -3 -3 -3 -4 -4 -5 -5 -4 -3 1 1 2 3 3 2 2 3 0 -1 3 1 3 3 2 2 3 4 2 -3 -2 1 4 2 1
-4 -3 -3 -3 -3 -4 -4 -3 -2 -3 -4 -4 -3 -3 -4 -4 -4 -4 -4 -4 -4 -5 -1 0 2 3 2 3 2 2 -1 -1 0 -1 1 2 3 4 3 4 2 -2 2 3 1 2 2
-3 -3 -3 -3 -2 -3 -4 -3 -3 -3 -3 -4 -2 -1 -2 -2 -4 -4 -4 -4 -4 -5 -4 -6 0 2 2 4 2 1 1 -0 -0 2 -1 2 -1 -0 1 1 -3 -1 1 1 2 2 2

GFSGBSN_850_dewp_057.txt.gz
Dewpoint
-9 -7 -2 -2 -1 -2 3 3 4 2 3 3 3 1 -2 1 -1 -2 -2 -2 -3 -2 -3 -4 -5 -4 1 2 1 1 4 4 4 5 5 6 5 5 6 7 7 6 5 6 6 7 6
-9 -8 -8 -5 -3 -3 1 2 3 2 3 3 3 -0 -0 -3 -0 -2 -2 -2 -6 -5 -4 -3 -4 -3 1 1 -0 -0 3 3 3 4 4 6 4 5 5 6 7 6 6 6 7 7 6
-9 -9 -9 -7 -5 -3 -0 1 1 3 3 3 3 2 0 -4 -5 -2 -2 -5 -8 -3 -3 -3 -1 -2 0 -3 -2 1 2 4 2 2 2 7 3 5 6 5 6 6 7 6 8 8 8
-9 -9 -9 -7 -3 -4 -3 -1 -2 2 3 3 3 3 -3 -7 -7 -8 -6 -4 -5 -5 -5 -5 0 -2 -2 -0 1 1 2 6 5 3 4 4 5 5 4 4 4 4 5 8 4 6 5
-7 -9 -10 -8 -6 -6 -0 -2 -5 -2 1 2 3 3 -0 -6 -5 -4 -4 -4 -2 -4 -4 -3 -2 -1 -2 1 1 2 3 5 5 4 7 4 4 5 4 4 5 4 7 6 5 3 3
-4 -9 -10 -8 -6 -7 -3 -3 -1 1 -3 -1 2 1 -3 -3 -5 -5 -3 -3 -1 -1 -0 0 0 -0 -2 0 2 3 2 3 6 6 6 6 4 4 4 4 7 6 5 5 5 3 3
-1 -9 -10 -8 -7 -6 -7 -8 -9 -2 1 -4 -5 -2 -2 -5 -5 -6 -4 -3 -2 -2 -1 -2 -1 -0 -2 1 1 1 -0 4 6 5 7 6 5 6 5 3 2 3 4 5 3 2 3
1 -8 -10 -9 -7 -6 -6 -6 -7 -2 -5 -4 -2 -1 -3 -7 -6 -5 -6 -5 -2 -0 -0 1 2 1 1 1 2 -0 1 3 6 7 5 6 6 4 3 2 2 3 4 4 2 1 3
2 -6 -10 -10 -8 -7 -5 -5 -8 -7 -7 -8 -9 -6 -3 -4 -7 -6 -6 -5 -1 1 1 2 2 2 3 2 3 1 2 4 5 6 5 5 4 4 4 4 3 2 3 3 2 1 1
2 -5 -10 -9 -9 -6 -6 -6 -7 -7 -6 -6 -8 -8 -2 -1 -3 -4 -4 -6 -2 -0 -1 3 2 2 3 2 4 1 3 4 5 4 4 5 3 5 5 5 3 4 0 1 1 3 5
2 -5 -10 -7 -8 -5 -6 -6 -7 -6 -6 -6 -7 -9 -2 -0 -3 -2 -0 -4 -4 1 1 2 3 1 3 4 3 3 4 5 5 6 5 6 5 5 6 5 1 3 -0 -0 1 3 3
3 -5 -9 -6 -7 -5 -5 -6 -6 -6 -6 -6 -9 -7 -1 1 1 -1 1 -4 1 -3 -0 3 3 2 2 3 5 4 5 5 5 5 4 5 4 4 5 5 2 1 2 2 2 2 4
3 -5 -7 -6 -4 -6 -5 -6 -6 -6 -8 -7 -11 -4 -0 1 2 2 2 1 -1 -1 -1 1 5 3 3 4 4 4 5 5 6 6 7 6 5 4 4 5 4 2 3 5 5 5 4
3 -7 -5 -6 -4 -5 -5 -6 -6 -7 -10 -9 -11 -2 1 1 2 2 1 -2 -0 0 2 1 4 4 5 4 4 3 4 6 4 3 5 6 7 5 4 4 4 4 2 4 5 6 4
2 -4 -5 -4 -4 -3 -5 -7 -7 -9 -13 -10 -9 -2 2 2 2 2 2 -2 -0 1 2 4 4 5 5 5 4 4 4 4 4 3 3 4 5 4 4 4 4 5 6 1 2 0 1
-1 -2 -7 -3 -3 -4 -6 -7 -7 -9 -13 -12 -3 0 3 2 3 3 -1 1 0 1 2 1 4 3 6 5 5 4 5 3 5 4 1 3 4 4 5 4 4 5 4 5 2 4 4
0 -4 -6 -3 -2 -4 -7 -7 -7 -8 -13 -5 2 3 3 1 3 3 -1 -0 2 2 1 1 2 2 3 4 4 5 4 4 4 5 2 2 2 4 5 6 5 6 7 5 3 2 3
0 -6 -4 -2 -3 -5 -6 -7 -7 -8 -12 -3 3 1 4 2 4 3 -0 1 1 0 0 -0 -1 -0 2 3 4 3 4 2 3 3 5 2 2 5 5 3 4 4 5 5 6 4 1
-1 -5 -3 -2 -4 -6 -6 -7 -6 -9 -12 -2 2 3 3 3 3 1 1 2 2 1 0 -1 -1 -1 -1 -0 2 2 2 0 1 2 3 2 4 5 5 5 4 6 5 5 4 2 2
-3 -4 -2 -3 -5 -6 -6 -7 -6 -12 -11 1 2 1 4 4 3 3 2 2 1 1 0 -2 -2 -2 -1 -0 -1 2 2 0 -0 -0 1 1 1 1 3 1 3 6 5 5 5 6 5
-2 -3 -2 -4 -5 -5 -6 -7 -7 -11 -14 0 0 0 1 0 3 1 1 1 1 2 0 -1 -1 -1 -0 0 0 1 2 1 -0 -1 -0 -1 1 -0 0 1 2 3 3 5 6 5 6
-2 -2 -3 -5 -5 -6 -7 -7 -7 -9 -17 -13 -4 -2 -0 -0 0 0 1 2 1 1 1 1 -0 -0 -1 -1 -1 0 1 1 0 -0 -0 -1 1 -1 -1 1 1 2 1 4 4 4 4
-2 -3 -4 -5 -5 -6 -6 -6 -6 -7 -14 -17 -7 -2 -0 -1 -2 -0 0 1 2 2 1 0 -1 1 -1 -0 -0 -1 -1 -1 -1 -0 0 0 1 -1 -1 1 0 2 1 1 3 3 4
-1 -3 -4 -4 -6 -6 -5 -6 -5 -6 -5 -6 -11 -7 -3 -1 -4 -3 -5 -5 0 0 2 1 2 1 -0 0 -1 -2 -2 -1 -1 -1 -1 1 -0 -1 -1 -0 0 -2 -3 -1 0 -1 2
-1 -3 -4 -4 -6 -5 -6 -5 -4 -4 -4 -4 -5 -7 -9 -5 -4 -6 -6 -3 -1 0 1 1 3 3 2 -0 -0 1 1 -0 -0 -1 -1 -1 1 1 0 -0 -1 -3 0 1 1 0 -2
-2 -4 -4 -4 -5 -5 -5 -5 -4 -4 -4 -5 -4 -4 -5 -7 -5 -4 -5 -4 -0 0 1 2 3 3 2 1 1 2 3 1 1 1 -1 -0 -1 -1 2 2 2 -3 -1 -1 -1 3 -0
-2 -4 -3 -4 -4 -5 -5 -4 -3 -4 -4 -4 -4 -4 -3 -4 -4 -4 -5 -5 -5 -5 -2 0 -0 2 2 1 2 2 1 -1 2 0 3 3 3 1 1 3 1 -3 -3 -0 3 1 1
-2 -3 -3 -3 -3 -4 -5 -4 -4 -4 -4 -4 -3 -4 -2 -3 -4 -4 -4 -4 -4 -5 -2 -3 2 3 2 3 2 1 -0 -1 -0 -1 1 1 2 3 3 4 2 -3 1 2 0 2 2
-4 -3 -3 -3 -3 -4 -5 -4 -4 -4 -3 -3 -2 -2 -3 -3 -3 -4 -4 -4 -4 -4 -4 -5 -1 -1 1 4 2 1 2 -1 -1 1 -1 1 -1 0 1 1 -3 -3 0 0 1 2 2

GFSGBSN_850_dewp_060.txt.gz
Dewpoint
-6 -8 -9 -5 -3 -4 -2 -1 -0 2 3 3 3 3 2 -2 -2 -3 -2 -3 -4 -4 -3 -2 -2 -3 -1 2 1 0 3 5 5 3 6 7 6 4 6 7 7 6 7 6 6 5 6
-2 -8 -9 -7 -4 -1 -6 -6 -4 2 2 3 3 3 0 -3 -5 -4 -3 -3 -6 -5 -3 -2 -1 -3 -1 1 -0 -1 1 3 4 4 5 7 5 4 5 6 6 6 5 5 7 7 7
0 -7 -9 -9 -4 -6 -3 -4 -2 0 3 2 2 2 2 0 -8 -6 -4 -6 -8 -5 -3 -3 -2 -1 -1 -3 0 -1 -0 2 2 3 3 6 5 5 6 6 6 6 8 7 7 6 7
1 -5 -8 -9 -6 -6 -5 -1 -3 0 2 1 2 2 2 -2 -5 -7 -8 -5 -5 -4 -4 -4 -0 -2 -3 -1 1 -1 0 1 2 2 3 5 5 4 5 5 5 6 6 9 7 8 8
2 -2 -6 -9 -8 -6 -3 -5 -5 0 2 2 -0 2 2 2 -4 -5 -5 -6 -3 -5 -4 -2 -1 1 -1 2 1 1 2 4 2 3 2 6 6 5 4 4 6 6 7 7 8 8 8
3 0 -5 -8 -9 -7 -4 -3 -5 1 2 3 2 -0 2 0 1 -5 -5 -5 -3 -3 -1 -0 0 0 -2 0 2 2 2 5 5 4 3 6 6 5 4 5 8 7 6 6 6 7 7
3 2 -3 -8 -9 -8 -6 -4 -4 -0 2 2 1 -2 1 -2 -3 -6 -5 -5 -4 -4 -1 -1 -1 -0 -1 1 1 2 3 5 5 4 6 5 6 6 5 3 2 3 4 5 3 3 4
4 3 -1 -7 -9 -8 -5 -5 -4 -4 -5 2 1 -6 -3 -1 -6 -5 -5 -4 -1 -1 1 1 2 2 2 3 2 1 3 3 6 5 4 6 5 4 3 2 2 3 4 4 2 2 3
4 3 0 -7 -9 -7 -5 -5 -4 -5 -5 1 0 -5 -5 -2 -6 -5 -5 -4 -2 -1 1 1 2 2 3 3 3 3 3 3 5 6 5 4 3 3 4 3 3 2 4 3 3 1 1
5 3 1 -7 -7 -7 -5 -5 -5 -5 -5 -3 -4 -7 -5 -2 -2 -4 -2 -5 -4 -2 -2 2 2 2 3 3 3 2 3 3 4 6 4 4 4 4 5 4 2 4 1 1 2 3 5
5 4 1 -7 -6 -5 -5 -4 -5 -6 -6 -7 -7 -10 -3 -1 -1 -2 -1 -3 -3 1 -1 -1 2 2 3 3 2 3 3 4 4 5 5 6 5 5 6 4 2 3 -0 0 1 3 2
6 4 1 -7 -6 -4 -4 -4 -6 -7 -8 -11 -9 -9 -1 0 1 -1 -1 -3 2 -3 2 3 3 3 2 4 4 3 5 5 4 5 4 5 4 4 5 4 1 1 1 1 1 2 3
6 4 1 -5 -5 -4 -3 -4 -7 -7 -11 -12 -10 -4 -0 1 2 2 2 1 -2 -1 -2 3 4 1 2 4 4 4 4 4 6 6 7 5 5 4 4 4 3 1 3 5 6 5 4
5 4 -0 -3 -5 -3 -3 -5 -7 -7 -13 -11 -11 -1 1 2 2 2 1 -2 -1 -1 1 0 4 3 4 4 4 4 5 6 4 4 5 5 7 5 4 4 4 3 2 4 5 6 4
5 3 -2 -3 -4 -3 -3 -6 -7 -7 -12 -11 -8 0 2 2 2 2 1 -3 -2 -0 2 4 4 5 5 4 3 4 5 5 4 2 4 3 5 4 4 4 3 5 4 -1 1 0 1
3 2 -1 -4 -3 -3 -5 -6 -7 -8 -12 -9 -1 1 3 2 3 3 -1 1 -0 -0 2 2 4 3 5 3 4 5 4 3 5 3 0 2 5 4 4 3 4 4 2 4 3 4 4
3 1 -1 -5 -2 -3 -6 -7 -7 -8 -11 -7 1 3 3 2 3 3 -1 0 1 1 1 1 2 2 3 5 4 4 4 3 4 3 1 1 2 5 4 5 6 6 6 4 2 2 3
3 1 -1 -4 -2 -4 -6 -7 -8 -8 -11 -5 3 2 3 2 3 2 -0 0 1 1 0 -0 -1 0 2 3 4 4 4 3 3 3 3 1 2 5 4 4 3 3 5 4 6 3 1
3 1 -3 -2 -3 -5 -6 -7 -8 -9 -11 -4 1 3 3 2 2 0 0 2 2 1 0 -1 -1 -1 -1 1 2 2 2 0 3 2 3 2 2 5 5 4 4 6 4 4 5 3 1
3 1 -3 -2 -4 -6 -6 -8 -7 -9 -14 -1 2 0 3 3 3 3 2 2 1 1 0 -1 -2 -2 -1 -1 -0 2 2 0 2 2 3 1 2 1 2 1 3 5 4 4 4 6 4
2 -2 -3 -2 -5 -6 -8 -7 -7 -9 -16 -2 0 -0 1 1 3 1 1 1 1 2 -0 -1 -2 -1 -1 0 1 2 1 1 -0 2 2 2 2 0 0 -0 3 4 4 5 6 5 6
1 -2 -2 -4 -5 -7 -8 -7 -7 -9 -16 -14 -6 -2 -0 -0 -0 -0 1 2 3 2 1 1 -0 -0 -1 -1 -1 1 1 1 2 -0 1 -1 2 -1 -0 1 2 2 2 3 4 5 5
-0 -2 -2 -4 -5 -7 -6 -7 -7 -7 -11 -16 -9 -3 -1 -2 -3 -0 -1 -1 2 1 1 1 -1 1 -0 -1 -1 -2 -1 -1 -2 -0 1 1 1 -1 -1 0 0 2 1 1 2 3 3
-1 -2 -3 -4 -6 -7 -6 -6 -7 -7 -7 -7 -9 -9 -3 -1 -4 -3 -6 -5 -1 -0 2 1 2 1 1 0 -1 -2 -2 -1 -1 -1 -1 -0 -1 -2 -2 -1 -2 -3 -3 -2 0 -0 2
-2 -1 -4 -4 -6 -7 -6 -6 -6 -6 -6 -7 -6 -6 -8 -6 -5 -7 -6 -3 -1 0 1 1 4 3 3 -1 -0 1 0 -0 -0 -1 -0 -2 -0 1 -0 -0 -2 -4 0 0 0 0 -2
-1 -2 -4 -5 -6 -6 -6 -6 -5 -6 -6 -7 -6 -5 -4 -8 -6 -4 -5 -4 -2 -2 -0 1 3 3 2 1 1 2 3 1 1 1 -1 -0 -1 -1 1 1 1 -4 -4 -1 -1 2 -1
-1 -2 -4 -5 -5 -5 -6 -5 -5 -6 -6 -6 -5 -5 -4 -4 -4 -4 -4 -5 -5 -5 -4 -0 -1 2 2 1 3 3 1 -1 1 0 3 3 3 3 2 2 1 -3 -3 -2 2 -0 0
-1 -3 -4 -5 -5 -5 -5 -5 -5 -5 -5 -5 -4 -4 -4 -3 -3 -3 -4 -4 -4 -5 -4 -4 1 2 3 2 3 2 0 -2 -0 -1 0 2 3 3 1 3 2 -3 -0 2 -1 1 2
-1 -3 -4 -4 -4 -5 -5 -4 -4 -4 -4 -4 -3 -2 -3 -3 -3 -4 -5 -5 -5 -3 -3 -5 -2 -0 0 3 1 1 2 -1 -1 0 -2 1 -1 0 0 0 -3 -4 -1 -2 -0 1 1

GFSGBSN_850_dewp_063.txt.gz
Dewpoint
2 -1 -7 -8 -7 -5 -2 1 -0 -0 2 2 2 2 2 1 -6 -2 -2 -3 -2 -5 -4 -4 -4 -4 -2 2 0 0 2 4 4 4 6 7 6 5 7 6 7 7 7 5 6 6 6
3 1 -4 -7 -8 -5 -5 0 1 2 2 1 2 2 2 2 -4 -9 -4 -3 -7 -7 -3 -4 -5 -3 -2 -1 -2 -1 -1 3 4 3 5 7 6 4 6 7 6 6 7 7 6 7 6
4 3 -1 -5 -8 -7 -3 -0 -2 2 3 3 0 1 2 2 -3 -7 -8 -7 -6 -6 -5 -5 -2 0 -3 -4 -1 -0 -3 1 3 3 2 5 5 4 5 7 6 6 7 6 7 7 7
7 3 2 -2 -7 -8 -5 -0 -1 2 3 2 0 -2 0 2 2 -5 -6 -6 -5 -4 -5 -5 -2 -3 -5 -4 0 -0 -1 -2 2 3 2 3 6 5 5 6 5 6 7 8 7 7 7
7 4 2 1 -6 -9 -7 -3 -1 1 3 2 1 1 -4 2 2 -1 -6 -5 -4 -2 -2 -1 -1 -0 -1 1 2 1 1 -1 1 2 3 4 6 4 4 6 6 6 8 7 8 6 8
8 7 2 2 -4 -8 -6 -5 -1 1 2 3 2 1 -4 -1 -1 -3 -6 -6 -5 -4 -2 -1 -0 -0 -1 2 2 2 3 2 3 4 5 6 6 5 4 6 6 7 7 6 7 8 8
8 7 2 2 -3 -8 -6 -4 -3 0 2 2 2 1 -6 -1 -4 -5 -5 -5 -5 -3 -0 1 0 -1 0 2 2 3 4 4 4 4 4 4 6 6 5 2 3 3 5 5 4 7 8
8 7 3 2 -2 -8 -6 -4 -4 -0 1 2 1 -1 -7 -2 -3 -6 -5 -3 -2 -1 1 1 2 2 2 3 2 3 3 4 4 4 4 5 5 4 3 2 3 4 4 5 3 5 6
8 7 4 3 -1 -7 -5 -4 -4 -1 -1 1 0 -6 -8 -1 -2 -6 -5 -4 -2 -2 1 0 2 1 3 2 3 3 3 3 3 4 5 6 4 3 4 3 3 3 4 4 4 3 2
8 6 5 4 -1 -6 -5 -4 -3 -3 -2 -1 -6 -7 -10 -1 -1 -3 -4 -5 -4 -2 -3 -1 2 2 3 3 3 3 3 3 4 4 5 5 3 4 4 4 2 4 1 2 3 4 6
8 6 6 4 -0 -5 -4 -3 -4 -6 -5 -8 -10 -8 -8 -1 -0 -2 -1 -3 -4 1 1 -1 1 2 3 2 2 2 3 4 4 5 5 6 5 5 5 3 1 3 1 1 2 3 3
8 6 5 4 -0 -5 -3 -3 -5 -7 -7 -11 -10 -9 -2 -0 1 -1 -1 -3 1 -3 2 2 3 2 2 4 3 3 5 4 4 5 4 5 4 4 5 3 1 0 1 1 1 2 5
8 7 5 4 -1 -4 -3 -2 -5 -7 -7 -11 -10 -3 -0 1 2 1 1 1 -2 -1 -3 4 4 1 2 4 3 3 4 5 5 6 6 6 5 4 4 4 2 1 2 6 5 5 5
9 7 5 3 -2 -4 -2 -3 -6 -7 -7 -11 -7 -0 1 2 2 2 1 -2 -1 -2 2 1 3 2 3 4 4 4 4 5 4 5 6 6 7 5 4 3 4 2 3 4 5 6 4
9 8 4 2 -2 -4 -2 -3 -6 -7 -8 -8 -3 1 2 2 2 2 1 -3 -2 -1 2 3 4 5 4 4 3 5 5 5 3 2 4 4 6 4 4 4 3 4 4 -1 1 -0 2
9 7 3 1 -1 -3 -2 -5 -7 -7 -9 -4 -1 2 3 2 2 3 0 1 -0 -2 2 3 4 3 4 4 4 5 5 3 4 2 0 2 6 4 4 3 4 3 1 4 4 5 5
9 6 3 0 -2 -2 -2 -6 -7 -8 -11 -2 1 3 3 2 3 3 -1 -1 0 0 1 1 2 2 3 4 4 4 4 4 3 3 0 0 2 6 4 5 6 5 5 4 2 2 4
8 6 3 0 -3 -2 -3 -6 -8 -8 -11 -0 2 2 3 3 3 2 0 0 1 1 1 -0 -1 0 3 3 4 4 4 3 3 2 2 1 2 5 5 4 3 3 4 3 4 3 2
8 6 3 1 -3 -2 -5 -7 -8 -8 -11 -1 2 2 2 2 2 0 -0 1 2 1 0 -1 -1 -1 -1 3 2 2 2 0 3 2 2 1 2 5 5 3 3 4 3 4 4 3 2
9 6 2 -0 -2 -3 -6 -8 -7 -9 -14 -1 2 0 3 3 2 2 2 1 0 1 -0 -1 -2 -2 -1 -1 -0 2 1 1 3 3 1 0 1 1 2 1 3 5 3 2 3 6 4
8 5 2 -2 -2 -4 -7 -8 -8 -10 -14 -2 0 -1 1 2 3 1 1 1 1 1 -0 -1 -2 -1 -1 0 1 2 1 1 0 3 2 2 2 -0 0 -0 3 3 3 3 4 4 5
8 3 1 -1 -2 -6 -8 -8 -8 -9 -16 -10 -5 -1 -0 -1 -0 -0 -0 2 3 2 1 0 -1 -0 -1 -1 -1 1 1 1 1 -0 2 -1 1 -1 0 0 1 3 2 3 4 3 3
7 3 -0 -2 -4 -6 -8 -8 -8 -8 -11 -14 -9 -7 -2 -2 -3 -0 -2 -2 2 1 2 1 -1 1 -0 -1 -0 -1 -1 -1 -1 0 1 0 1 0 1 -0 -1 0 0 1 2 3 3
5 1 -2 -2 -5 -7 -7 -8 -8 -8 -8 -8 -13 -9 -2 -2 -3 -2 -6 -5 -1 -1 2 1 2 0 2 1 -2 -2 -1 -1 -1 -1 -1 0 0 -1 1 -1 0 -3 -4 -1 0 -0 1
4 -1 -1 -3 -6 -7 -7 -7 -7 -8 -8 -7 -8 -9 -12 -4 -5 -7 -6 -3 -1 -0 1 1 4 2 3 -1 -0 1 1 -0 -0 -1 -1 -2 -1 1 1 -0 -2 -3 0 -1 -1 -0 -2
3 -1 -1 -3 -6 -7 -7 -6 -7 -7 -7 -7 -8 -7 -7 -9 -5 -5 -6 -4 -3 -3 -1 0 2 3 2 0 1 3 2 1 1 1 -1 -1 -2 -0 1 1 1 -5 -4 -1 -2 2 -2
2 -1 -1 -4 -6 -6 -6 -6 -6 -7 -7 -7 -7 -7 -6 -5 -4 -4 -5 -5 -5 -5 -5 -1 -4 2 2 1 3 3 1 -1 2 2 4 4 3 3 2 2 0 -4 -4 -2 1 -0 -1
1 -1 -2 -5 -6 -6 -6 -6 -7 -6 -6 -6 -6 -6 -6 -4 -4 -4 -4 -4 -4 -5 -5 -5 1 1 3 2 2 2 0 -1 -0 -2 -0 2 3 3 2 3 1 -3 -1 2 -2 0 1
-1 -1 -2 -5 -5 -6 -6 -6 -6 -5 -5 -6 -6 -6 -5 -4 -3 -4 -5 -5 -5 -4 -4 -5 -1 -0 -0 2 2 0 1 -2 -2 -0 -2 1 -1 1 0 0 -4 -4 -2 -2 -2 -1 -1

GFSGBSN_850_dewp_066.txt.gz
Dewpoint
5 3 3 1 -2 -7 -6 0 2 -1 1 3 2 2 2 2 0 -9 -6 -4 -5 -7 -5 -4 -5 -6 -5 -1 -0 -0 0 3 3 4 6 6 6 3 3 5 6 8 6 5 4 5 4
6 6 2 2 1 -5 -7 -2 1 1 1 3 4 1 2 2 2 -7 -12 -6 -7 -7 -7 -3 -1 -5 -2 -4 -4 -2 -1 2 3 4 6 6 5 3 2 4 6 6 7 5 5 5 5
8 7 3 2 2 -3 -7 -6 -0 1 3 3 3 3 0 1 2 -3 -7 -7 -6 -5 -4 -1 1 -1 -1 -5 -2 -2 -2 -0 4 2 4 6 5 4 4 4 6 5 6 8 6 6 6
8 7 7 2 3 -0 -6 -6 -3 0 3 3 3 2 2 -1 2 1 -6 -6 -6 -4 -4 -3 -3 -2 -3 -5 -2 -1 -1 -2 3 4 3 5 6 5 4 5 5 6 5 8 6 6 6
9 8 8 6 2 2 -5 -6 -4 -2 2 3 3 3 2 -0 -0 -2 -6 -6 -6 -4 -2 -1 -1 -0 -0 -0 2 1 1 0 1 3 3 4 6 5 5 4 4 5 4 4 7 6 6
8 9 8 6 2 2 -5 -5 -4 -3 1 2 2 2 2 1 -1 -4 -6 -5 -6 -4 -2 -0 -1 1 -0 2 2 2 1 -0 2 3 5 4 6 5 3 3 4 3 2 3 5 6 6
9 9 8 6 3 2 -4 -5 -4 -3 -2 1 2 2 2 -0 -1 -5 -5 -4 -4 -2 -1 1 1 1 1 2 1 1 3 2 3 4 4 3 6 5 2 1 -2 -0 2 3 2 5 6
9 9 8 6 4 2 -4 -5 -4 -3 -2 1 0 -0 0 -2 0 -5 -5 -3 -2 -1 0 1 1 1 2 3 3 3 3 2 3 5 4 4 6 2 2 2 2 2 3 3 3 5 6
9 9 9 6 5 3 -3 -5 -3 -3 -5 -2 -3 -1 -2 -2 1 -5 -5 -4 -3 -3 1 1 2 2 3 3 3 4 4 2 3 5 5 6 4 3 3 2 3 2 2 4 3 6 5
10 9 9 6 5 3 -2 -4 -3 -3 -6 -6 -8 -8 -4 0 1 -4 -4 -4 -4 -2 3 1 1 3 3 2 3 3 3 3 2 4 5 5 2 4 3 3 1 4 2 3 4 4 3
10 10 9 7 4 3 -2 -3 -3 -3 -7 -7 -10 -9 -6 2 -0 -2 -2 -4 -4 0 4 1 2 2 2 2 3 4 2 3 3 4 4 6 4 4 4 3 1 3 1 2 3 1 3
10 10 9 7 4 3 -2 -3 -2 -4 -7 -8 -10 -7 -2 1 0 -1 -1 -3 0 3 4 3 2 1 3 2 2 4 4 3 4 3 4 4 4 3 3 2 1 0 1 2 2 2 5
10 9 9 8 5 2 -1 -3 -2 -5 -7 -9 -9 -2 1 2 2 0 1 -1 5 5 -1 4 2 1 3 3 3 3 3 4 5 6 6 6 5 4 4 3 1 1 2 5 5 7 3
10 10 9 8 5 2 -1 -3 -3 -6 -8 -10 -7 0 2 2 2 1 1 1 5 1 2 2 2 2 4 4 4 4 5 4 4 5 7 7 8 5 4 3 3 2 1 3 4 4 2
10 10 9 8 5 1 -2 -2 -3 -7 -8 -10 -5 1 2 2 1 2 1 5 5 3 1 2 3 3 4 3 5 5 5 4 3 3 5 5 6 4 4 3 3 3 4 -1 2 0 2
10 10 10 9 4 1 -2 -2 -4 -7 -8 -9 -3 2 2 2 2 2 2 3 3 -1 2 2 3 3 2 3 5 6 6 4 3 1 0 2 7 4 4 3 3 3 0 4 5 6 4
10 10 10 9 4 1 -2 -2 -6 -8 -9 -6 -0 3 3 3 3 3 5 4 1 0 1 2 2 2 3 2 4 4 6 4 3 2 -0 0 3 6 4 5 4 4 4 3 2 3 4
10 10 9 7 3 1 -2 -2 -7 -8 -10 -3 2 4 2 2 3 3 3 1 1 1 2 0 -0 0 3 3 3 4 5 4 3 1 1 0 2 5 6 3 3 2 2 2 4 5 3
10 10 9 7 3 1 -2 -4 -8 -8 -11 -1 3 2 2 2 2 2 2 1 2 1 0 -0 0 -0 -1 3 4 2 3 1 3 2 1 1 3 5 5 3 1 3 2 2 2 4 6
10 10 9 6 2 -0 -2 -6 -9 -9 -12 -3 2 3 3 2 2 2 3 2 1 1 0 -2 -1 -1 -1 0 0 2 2 2 3 3 1 0 1 3 3 2 1 3 2 1 2 6 3
9 9 9 6 2 -1 -3 -8 -9 -9 -13 -2 1 1 1 3 2 1 1 1 1 2 -0 -1 -1 -1 -0 2 1 2 1 2 2 4 3 2 5 3 -0 1 3 3 2 2 4 3 5
8 9 8 5 1 -2 -5 -9 -9 -9 -13 -3 -3 -0 0 0 1 1 1 2 2 2 1 1 -1 -1 -1 -0 0 2 1 2 3 2 3 1 4 1 2 1 1 3 2 2 2 2 2
9 8 8 3 -1 -2 -6 -9 -9 -9 -13 -13 -9 -5 -1 -1 -1 1 1 1 1 1 2 1 -0 0 0 -0 0 -2 -1 -0 -0 2 3 4 3 3 4 0 0 1 -0 1 2 2 2
9 9 7 4 -1 -4 -8 -9 -9 -9 -9 -11 -12 -9 -2 -2 -1 0 -4 -5 0 -0 2 2 2 1 3 1 -2 -1 -1 -1 -1 -0 -0 2 2 2 4 1 3 -2 -5 -3 -2 -2 -1
9 9 6 1 -2 -5 -8 -9 -8 -9 -8 -8 -10 -13 -7 -3 -4 -6 -5 -3 -1 0 1 3 3 2 2 0 0 1 1 1 0 -1 -1 -1 1 3 3 2 -1 -2 -0 -1 -1 0 -2
9 8 3 -0 -3 -6 -8 -8 -8 -8 -8 -8 -8 -8 -12 -6 -6 -6 -5 -4 -2 -2 1 -0 2 3 2 1 2 3 2 0 2 2 -1 -2 -1 0 1 2 1 -2 -2 -1 -1 1 -1
8 7 2 -1 -4 -7 -8 -8 -8 -8 -8 -8 -8 -8 -7 -5 -4 -5 -7 -6 -5 -5 -2 -1 -3 2 2 2 5 3 1 -1 1 2 3 3 3 3 1 1 -1 -4 -5 -2 2 2 -0
7 6 1 -2 -6 -7 -8 -8 -8 -8 -8 -8 -8 -8 -7 -3 -3 -4 -5 -4 -5 -5 -2 -4 1 2 2 4 2 2 1 -1 -0 -1 1 2 3 3 2 3 2 -3 -1 2 -0 -1 0
6 4 1 -3 -6 -7 -7 -8 -8 -8 -8 -8 -7 -7 -6 -5 -3 -5 -5 -5 -5 -5 -4 -4 -1 0 -0 2 1 0 0 -2 -1 0 -2 0 -1 0 0 -1 -3 -3 -2 -2 -0 0 -0

GFSGBSN_850_dewp_069.txt.gz
Dewpoint
6 7 6 4 2 1 -3 -6 -5 -4 -1 1 3 3 3 1 3 2 -8 -9 -5 -8 -9 -6 -3 -5 -1 -2 -4 1 -1 1 3 1 5 6 6 5 3 5 8 8 4 4 7 4 3
9 9 8 6 4 1 -1 -5 -6 -3 1 2 3 3 3 2 2 2 -4 -7 -8 -5 -5 -3 0 -1 1 -3 -2 1 -1 1 2 3 5 6 6 3 -0 3 7 7 7 6 8 5 3
9 8 8 7 7 2 0 -3 -6 -3 0 1 3 3 3 2 0 2 2 -5 -6 -6 -5 -4 -4 1 1 -3 -2 2 -0 2 2 2 5 6 7 5 0 2 5 5 6 5 6 8 3
10 9 9 8 8 5 1 -2 -5 -3 -1 2 3 3 2 2 1 2 1 0 -6 -5 -3 -3 -2 1 -0 -2 -1 1 2 2 3 0 4 4 6 6 1 2 5 7 6 8 7 5 4
10 9 9 9 8 6 2 0 -5 -4 -2 2 2 2 2 2 2 1 -4 -5 -7 -5 -3 -1 2 1 -1 -1 1 3 1 1 2 1 2 3 6 4 4 4 5 7 9 8 7 6 6
10 9 9 9 8 6 2 1 -4 -4 -3 -2 1 2 2 2 0 0 -5 -5 -6 -5 1 2 2 2 1 0 1 2 3 2 3 4 4 5 5 4 3 3 4 3 4 4 5 6 6
10 9 10 9 9 7 3 2 -3 -4 -3 -0 1 2 0 1 -5 2 -5 0 -0 0 0 0 0 1 1 3 1 2 3 3 3 4 4 4 6 6 1 -0 -3 -2 -1 -0 3 3 5
10 10 10 9 9 7 4 2 -2 -4 -3 -2 -1 0 -2 -4 -4 2 -5 1 0 -0 -0 0 1 2 3 3 2 3 3 1 2 5 3 5 6 1 -2 -1 -1 -3 -0 -1 1 3 3
8 10 10 9 9 7 5 2 -2 -3 -2 -4 -4 -2 -7 -8 -1 -1 1 -1 -3 -4 1 -0 2 2 3 3 2 3 3 2 3 5 5 6 4 1 0 1 0 -1 -0 -0 2 3 3
8 10 9 9 9 8 4 2 -2 -3 -2 -5 -6 -8 -7 -8 1 1 0 -4 -5 -3 4 1 1 2 3 2 2 4 4 3 3 4 4 6 3 3 1 1 -1 1 -2 -0 2 5 4
8 10 10 10 9 8 4 2 -2 -3 -2 -7 -8 -9 -8 -3 3 1 0 -3 -5 2 5 1 2 1 3 3 3 3 3 1 2 4 5 6 4 3 2 0 -1 2 1 2 3 3 -0
8 9 10 10 9 8 5 1 -2 -3 -3 -7 -9 -7 -4 -0 1 1 -1 -3 2 4 5 3 1 1 1 1 2 3 3 3 2 2 3 4 4 3 2 1 0 1 1 1 1 -0 4
7 8 10 10 9 9 5 1 -2 -2 -5 -8 -9 -2 0 1 3 -0 0 2 4 7 0 4 1 1 1 1 2 3 3 3 2 6 6 5 5 3 3 3 1 -0 1 4 4 6 4
8 7 10 10 10 9 5 1 -2 -2 -6 -8 -7 1 1 1 1 1 2 1 6 3 3 1 1 3 5 2 3 3 3 4 3 5 7 8 8 4 4 1 1 2 -1 2 3 3 1
8 7 9 10 9 9 6 1 -2 -3 -7 -9 -4 2 2 1 1 1 2 5 5 3 0 1 2 6 4 4 3 5 4 2 2 3 6 5 7 4 4 3 3 2 4 -0 2 -1 1
9 7 8 10 10 9 6 1 -2 -3 -8 -10 1 3 3 1 1 2 2 4 4 -0 1 0 2 2 4 3 3 5 4 2 2 3 0 2 6 4 5 3 2 3 -1 3 4 6 -0
9 8 9 10 10 9 5 0 -2 -5 -8 -7 3 3 3 2 2 3 5 5 2 1 1 2 0 1 0 3 3 3 5 4 1 2 -0 1 2 5 4 4 3 3 3 2 1 2 3
9 7 8 9 10 9 4 -0 -2 -6 -9 -3 3 3 2 2 4 2 3 2 1 1 1 1 -0 0 0 1 3 3 5 4 2 0 1 -0 4 6 4 3 2 3 2 1 3 4 1
8 8 8 9 9 8 4 -1 -3 -8 -9 -1 2 2 2 2 2 2 2 1 1 1 0 -0 1 -0 -0 1 3 2 4 2 3 1 1 -0 3 6 7 3 2 3 1 2 1 3 7
7 8 8 9 9 8 2 -1 -4 -9 -9 -0 2 3 2 2 2 1 2 1 2 1 -0 -2 -1 -1 -0 2 0 2 3 3 3 2 1 -0 1 3 4 2 1 3 1 1 2 7 3
4 8 8 9 8 7 1 -2 -6 -9 -10 -2 2 1 1 3 1 1 2 1 1 2 -0 -1 -1 -0 0 1 1 2 2 4 3 3 1 1 5 3 -0 2 2 3 2 1 4 2 4
6 7 8 9 8 6 -0 -3 -8 -9 -11 -2 -1 -1 0 -0 1 1 1 1 0 1 -0 -0 -1 -2 -1 0 0 2 2 2 3 3 3 2 5 2 4 1 1 3 2 1 1 0 1
6 7 8 8 8 4 -1 -5 -9 -9 -11 -2 -5 -3 -1 -0 0 1 -0 -1 -0 1 1 0 -1 -1 -1 0 -1 -1 -1 -1 -0 2 3 3 3 4 6 0 0 2 -0 -0 1 0 0
6 7 8 8 8 2 -1 -7 -9 -9 -11 -11 -11 -4 -4 -3 -1 -0 -1 -1 0 1 1 2 1 -0 3 2 -1 -1 -1 -1 -0 0 1 3 4 4 5 1 4 -1 -5 -4 -3 -2 -3
1 2 8 7 8 3 -1 -8 -8 -9 -9 -12 -11 -9 -4 -5 -4 -3 -3 -2 -1 0 2 2 3 2 2 0 -0 1 1 1 0 -1 -0 -0 2 4 5 3 -1 -3 -1 -1 -1 -0 -1
3 3 7 7 6 3 -3 -8 -8 -9 -8 -8 -9 -12 -8 -6 -4 -4 -3 -2 -1 -0 1 1 1 3 2 0 2 2 3 0 2 2 -1 -1 -0 1 1 2 0 -1 -2 -2 -2 1 -1
4 4 6 6 4 2 -5 -8 -7 -9 -8 -8 -10 -10 -6 -5 -4 -5 -4 -3 -4 -3 -1 0 -0 3 3 2 3 1 1 -2 1 1 2 2 2 3 3 2 -1 -5 -5 -2 1 3 -1
4 4 6 5 3 -1 -7 -7 -7 -8 -8 -8 -8 -8 -5 -4 -3 -3 -4 -5 -5 -5 -1 -3 1 2 3 3 2 1 -1 -2 -2 -2 1 2 2 3 2 4 2 -2 -1 1 -0 -1 -0
2 4 5 3 2 -2 -6 -7 -7 -8 -8 -8 -8 -7 -6 -3 -3 -4 -5 -5 -5 -5 -4 -1 0 1 1 3 2 0 -1 -2 -3 -0 -2 -0 -1 1 -1 1 -3 -2 -2 -1 -0 -1 -1

GFSGBSN_850_dewp_072.txt.gz
Dewpoint
9 9 9 8 8 7 4 2 0 -5 -3 -1 3 3 3 3 2 1 3 -1 -8 -5 1 -1 1 0 -6 -1 -2 1 1 -0 1 1 2 5 6 6 7 4 7 8 7 7 8 5 5
9 9 9 9 8 8 7 2 1 -5 -3 -2 2 3 3 3 3 1 2 3 -5 -5 -0 0 -2 -0 2 -1 -3 1 1 3 2 2 2 5 5 5 5 2 6 5 8 7 8 7 6
7 9 10 9 8 8 8 4 2 -3 -4 -2 2 2 2 2 2 2 2 2 2 -6 -6 1 -3 0 1 -0 -2 -0 1 2 3 0 2 5 6 7 4 2 6 6 8 9 8 8 8
8 10 10 10 8 8 8 5 2 -2 -4 -2 0 1 2 2 2 2 2 -0 -5 -7 -5 -3 -1 0 1 -1 -4 0 1 1 2 2 2 3 5 6 7 2 5 7 7 9 9 8 6
8 9 10 10 8 8 9 6 3 -0 -4 -3 -2 -0 1 2 2 2 -2 -5 -6 -6 -4 -1 1 3 -0 -0 2 2 2 1 1 2 2 3 5 6 4 5 6 8 8 8 7 7 8
7 8 10 10 9 8 9 7 4 1 -4 -3 -2 -1 -2 1 1 -0 -3 -5 -5 -6 -1 2 2 2 1 2 2 2 1 2 3 2 3 3 5 6 5 5 8 8 7 6 6 6 8
6 8 8 9 10 10 9 8 4 1 -3 -3 -2 -5 -6 0 -0 -3 -4 -1 1 1 1 0 -0 0 2 3 2 1 1 2 3 3 4 3 6 7 5 3 0 6 6 6 5 4 6
7 8 9 9 9 10 9 8 4 1 -2 -3 -2 -6 -8 -3 -4 -0 -5 2 1 -0 0 0 1 2 2 1 2 2 3 2 3 4 3 5 6 3 1 1 -0 -1 3 5 6 4 3
8 8 9 9 9 10 9 9 5 1 -2 -3 -3 -7 -9 -6 -2 0 0 -0 -2 -3 2 0 2 2 1 2 1 2 3 3 3 4 5 6 6 2 2 1 1 0 0 5 6 7 5
9 9 8 9 9 10 10 9 5 1 -2 -3 -4 -8 -9 -7 3 3 1 -0 -5 -3 4 2 1 2 3 2 3 3 2 3 4 5 4 6 4 3 5 3 -1 1 -2 0 3 5 7
7 9 9 9 9 9 10 9 6 0 -2 -2 -6 -9 -8 -6 3 2 2 -3 -5 2 6 1 1 1 3 2 2 3 3 3 4 4 4 6 5 5 2 0 -0 3 1 2 4 4 2
5 7 9 9 9 9 10 9 6 0 -2 -2 -7 -9 -5 -0 1 3 -1 -3 3 4 4 3 1 1 1 1 2 3 3 2 2 3 5 5 4 5 6 1 1 1 2 2 2 3 6
3 5 7 9 9 8 9 9 6 0 -2 -3 -8 -6 -0 2 3 1 -1 2 5 6 1 3 1 0 -0 1 2 2 2 3 4 5 6 5 5 4 4 3 1 1 3 6 6 6 5
4 4 5 8 9 8 9 9 6 -0 -2 -5 -9 -1 1 3 1 1 3 3 5 3 2 -1 0 2 3 0 1 2 1 3 3 4 6 7 7 5 3 3 3 2 2 5 4 5 4
3 4 4 7 9 8 8 9 6 -1 -2 -7 -7 1 3 1 1 1 3 3 6 3 -1 0 1 3 3 2 3 3 4 2 2 4 6 7 7 4 4 4 3 3 4 1 4 -1 4
3 3 4 5 8 8 8 8 4 -1 -3 -8 -2 3 3 1 1 2 4 4 3 0 -1 -0 3 3 3 3 2 4 3 1 2 3 1 3 6 4 4 4 3 4 0 3 5 5 1
2 3 3 5 7 8 9 8 4 0 -5 -8 3 3 2 1 1 3 3 3 2 0 1 1 1 2 2 2 2 3 3 3 1 3 0 1 3 6 4 5 4 4 3 3 2 3 5
-2 2 3 3 4 8 8 7 4 -0 -7 -5 3 4 2 1 3 3 3 2 1 1 1 1 0 1 0 2 3 2 4 3 1 1 1 1 4 4 4 2 3 3 2 1 4 5 2
-0 -1 2 4 6 8 8 7 3 -1 -8 -2 3 2 1 1 3 2 1 1 1 1 1 0 0 0 0 1 3 3 3 2 1 1 1 0 4 6 5 3 2 4 3 3 1 4 5
-0 0 2 3 6 8 8 7 4 -2 -8 1 2 3 3 2 2 2 1 -0 2 1 0 -1 -1 -1 0 1 0 2 3 2 2 1 1 1 2 4 6 3 2 3 2 2 3 6 5
-0 0 1 2 5 8 8 7 3 -4 -8 2 2 3 1 2 1 0 1 0 0 2 1 -1 -0 0 0 2 2 2 2 3 3 3 2 2 4 1 1 2 3 3 2 1 2 3 4
-2 0 2 3 5 8 8 6 2 -6 -7 -1 0 1 1 0 -0 0 1 1 -1 0 -0 0 -0 -0 -1 3 1 2 3 2 4 3 3 2 4 2 3 1 1 3 2 2 2 1 2
-2 -0 1 4 5 8 7 5 1 -7 -9 -2 -0 -1 -1 -0 0 1 1 0 -0 1 1 -1 -2 -1 -0 1 -1 -1 -1 -1 0 3 3 4 3 3 5 1 0 2 1 1 1 1 0
-2 -1 0 2 4 8 7 4 -2 -8 -10 -5 -5 -4 -1 0 0 1 -1 -0 1 1 1 1 1 -0 2 1 -1 -1 -1 -1 0 1 0 3 4 4 4 1 3 -0 -5 -3 -1 -1 -1
-3 -1 0 1 1 5 6 2 -2 -8 -10 -7 -10 -6 -4 -2 -2 -1 -1 -0 -0 1 2 2 2 2 2 0 0 2 2 1 0 -0 0 0 5 5 5 4 1 -3 -2 -1 -1 -1 -2
-3 -1 1 1 2 4 4 1 -5 -8 -9 -9 -12 -9 -6 -4 -3 -3 -2 -1 1 1 2 2 1 3 2 1 2 2 3 1 3 2 -1 -1 0 2 2 3 2 1 -2 -2 -2 3 -1
-6 -0 3 1 3 4 3 -1 -5 -6 -8 -9 -11 -11 -5 -4 -4 -4 -3 -2 -3 -1 1 1 2 3 2 3 4 3 3 -1 3 2 3 2 2 3 3 3 1 -2 -3 -2 1 4 -0
-6 -0 2 3 3 3 3 -1 -3 -5 -8 -9 -8 -11 -6 -3 -3 -3 -4 -4 -4 -4 0 -2 2 2 2 3 3 2 1 -1 -2 -0 1 1 3 3 3 4 3 -3 -2 0 0 -0 -1
-3 -0 1 2 2 3 1 -3 -2 -4 -7 -7 -8 -6 -6 -5 -2 -5 -4 -4 -4 -3 -3 0 1 1 2 3 2 2 0 -1 -2 1 -2 1 0 3 0 2 -2 -2 -0 -1 -2 -2 -3

GFSGBSN_850_dewp_075.txt.gz
Dewpoint
7 8 9 9 10 9 7 7 7 2 1 -3 -2 2 3 3 3 3 2 2 3 -2 3 1 0 -4 -3 1 -0 1 -1 -3 1 1 2 2 5 6 6 6 7 9 8 8 8 8 6
3 7 8 9 10 10 8 8 8 3 2 -3 -2 1 3 3 2 3 3 1 2 2 -4 -1 0 -4 1 2 -2 -1 -3 -0 1 1 1 3 6 6 6 5 6 7 7 8 9 9 8
4 6 7 9 10 10 9 8 8 6 3 -1 -3 -1 1 2 2 2 2 2 1 0 2 -4 0 -2 1 0 -1 -1 0 0 0 1 1 4 5 6 6 5 5 6 7 8 9 8 9
8 6 7 8 10 10 10 8 8 7 4 -0 -2 -3 1 1 2 -0 2 -1 -4 -6 -5 -2 -2 -0 1 -0 -2 -4 -0 1 0 1 0 3 3 5 6 6 6 7 6 7 7 8 8
9 8 7 8 9 9 10 9 8 8 4 1 -2 -3 -1 -2 -2 -1 -2 -4 -5 -6 -5 -0 1 2 2 0 0 1 0 1 2 1 2 1 4 5 5 7 7 6 7 6 7 8 9
8 8 8 8 9 9 9 9 9 9 5 1 -2 -3 -2 -6 -6 -6 -5 -5 -3 -4 -3 2 2 2 2 3 2 2 1 2 3 3 3 4 5 5 6 7 8 8 7 6 6 8 8
7 7 8 9 9 9 9 9 9 8 6 1 -2 -3 -3 -8 -7 -7 -3 -2 1 1 0 -0 0 2 3 1 1 2 2 3 2 3 4 4 5 7 6 5 3 5 6 6 6 7 7
5 6 7 8 8 9 9 9 9 9 6 0 -2 -3 -5 -8 -7 -3 -4 1 1 -0 -0 0 1 1 2 3 1 1 2 3 3 4 3 5 6 4 4 4 5 5 7 7 7 5 6
-4 -1 4 6 8 9 9 9 9 9 7 0 -2 -3 -7 -8 -3 -1 -0 1 -1 -3 2 1 1 2 1 2 1 -0 2 3 4 4 5 4 4 3 5 5 5 5 5 6 7 7 6
0 -0 -2 4 5 8 9 9 9 9 8 1 -2 -3 -8 -8 2 0 1 0 -5 -3 2 2 2 1 1 1 2 2 2 4 4 5 5 5 4 4 5 6 2 2 3 5 7 7 7
1 -0 -1 1 4 6 8 9 9 9 8 1 -3 -4 -9 -7 2 1 2 -2 -4 2 1 1 1 1 2 1 2 2 3 4 4 5 5 6 6 5 6 5 2 3 2 5 5 6 4
-0 1 1 -0 3 5 6 7 9 9 8 -0 -3 -6 -8 -2 1 2 -0 -3 2 1 -1 1 1 2 1 2 3 2 4 3 3 4 5 6 5 5 5 3 1 2 1 3 4 3 4
1 0 1 -2 2 4 4 6 9 8 8 -0 -3 -8 -2 1 3 1 -2 2 3 -0 -0 2 3 1 1 2 2 2 3 3 4 5 6 5 5 4 3 3 1 1 2 5 5 4 5
-1 0 0 0 3 5 3 5 9 8 7 0 -5 -5 1 3 3 0 1 2 1 2 3 -1 -0 2 2 1 1 2 3 3 3 3 5 5 6 6 4 4 3 2 1 4 5 5 4
-0 0 -0 1 2 4 4 5 8 8 7 -1 -7 0 2 1 1 2 2 1 3 2 -0 0 2 2 3 3 3 3 3 3 2 4 4 5 6 4 4 4 3 2 3 0 3 -0 3
-1 -1 -2 0 -1 3 3 5 7 8 6 -1 -2 2 3 1 1 2 3 2 2 1 -1 -0 4 2 3 4 3 3 2 1 2 3 2 4 6 4 4 4 3 3 0 2 2 2 1
-2 -1 -2 -1 -2 -0 3 4 6 7 5 -1 2 3 3 1 1 2 2 2 1 -0 2 1 4 4 2 2 2 2 2 3 2 3 -0 1 3 5 3 4 4 3 3 2 2 2 4
-3 -1 -1 0 -2 1 2 3 4 6 4 1 3 4 2 2 2 3 1 1 1 1 1 1 0 1 1 1 2 2 3 3 1 1 1 2 2 6 4 2 2 3 3 2 3 3 2
-2 -2 -2 -1 -4 1 2 4 3 5 5 1 3 3 3 2 2 2 0 2 1 2 2 1 1 -0 -0 2 4 4 4 2 1 1 1 1 3 5 5 2 2 4 3 3 2 3 2
-3 -2 -4 -1 -2 1 1 5 4 4 2 3 2 3 2 3 2 1 1 2 3 1 1 -1 -0 -1 0 1 0 3 3 2 2 2 1 0 3 2 2 2 2 4 3 3 3 2 4
-4 -3 -4 -1 -2 1 1 4 5 5 -1 3 1 1 1 2 1 1 1 0 3 3 1 -2 -1 0 1 2 2 3 2 4 3 2 2 2 4 0 1 1 3 3 2 3 3 3 4
-4 -4 -4 -1 -1 1 2 3 4 3 2 3 2 2 0 0 0 0 1 1 -1 1 1 1 -0 -0 1 3 1 3 2 2 4 2 2 2 3 2 1 1 1 2 2 2 2 1 3
-3 -3 -3 -1 -1 0 4 3 4 0 2 3 1 0 -0 1 0 1 1 1 -0 1 1 -1 -1 -1 2 0 -1 -1 -0 1 2 3 3 3 2 2 2 1 -0 1 0 1 2 1 1
-2 -3 -2 -2 -1 -0 3 4 3 -0 -1 -1 -1 -1 -1 1 1 1 -0 0 1 1 2 2 1 1 2 -1 -1 -1 -1 1 1 1 2 3 3 2 3 1 3 -1 -5 -3 0 0 -0
-2 -2 -1 -3 -1 0 0 2 2 1 -2 -4 -2 -2 -3 -0 -0 -0 -0 1 1 2 2 3 2 2 1 0 0 1 2 1 1 -0 0 3 5 6 3 2 0 -3 -3 -3 -3 -1 -1
-2 -1 -2 -2 -0 1 1 2 2 1 -3 -4 -5 -5 -5 -2 -3 -4 -1 -0 1 2 2 2 2 2 1 1 2 2 3 1 3 2 -1 -0 2 3 3 2 3 -1 -2 -2 -2 3 0
-2 -2 -2 -1 1 2 1 2 2 1 -2 -4 -9 -7 -5 -4 -4 -3 -2 -1 -1 0 1 1 2 2 2 2 3 2 1 -0 3 2 2 2 1 4 3 2 1 -2 -2 -2 -1 -1 -0
-2 -2 -3 -0 3 3 2 2 2 -1 -2 -3 -8 -10 -5 -3 -3 -3 -4 -3 -4 -1 1 -0 1 1 1 2 2 1 1 -1 -1 -0 1 2 2 2 2 3 3 -4 -3 -1 -0 -1 -2
-2 -3 -2 -0 -0 2 2 2 1 -0 0 -2 -5 -6 -7 -6 -3 -3 -3 -3 -3 -2 -1 0 -0 1 1 1 1 1 0 -2 -2 2 -2 1 -1 1 0 1 -2 -1 -2 -3 -3 -2 -2

GFSGBSN_850_dewp_081.txt.gz
Dewpoint
7 7 8 8 8 7 7 8 9 9 9 8 8 5 2 -1 4 -1 -0 2 2 3 2 3 1 -1 1 1 -0 -2 -0 -2 -2 0 2 3 2 2 4 4 5 6 5 5 6 8 9
6 6 6 7 8 8 7 7 8 9 9 9 8 7 3 -1 -1 -1 -3 -3 2 3 2 2 2 0 2 1 -1 -0 -1 -1 -2 0 1 3 2 4 4 5 5 5 5 4 5 8 9
3 3 5 6 7 7 7 7 6 8 9 9 9 8 4 -1 -2 2 -3 -5 -1 3 3 2 -0 3 2 -1 -1 -1 -1 -1 -1 0 1 2 2 4 4 5 4 4 6 4 7 8 8
2 3 2 2 4 6 6 6 7 7 8 9 8 8 5 -0 -2 -3 -4 -5 -5 -3 -4 -4 1 2 1 0 1 -0 -1 -1 -1 1 2 1 3 4 5 5 6 6 6 7 7 7 7
2 2 2 2 2 2 4 5 6 7 7 7 8 8 6 2 -2 -6 -6 -5 -5 -5 -5 -3 2 1 2 1 1 0 1 1 0 2 2 2 3 4 5 6 6 6 7 7 8 6 6
1 1 1 1 1 1 0 0 3 4 6 7 8 7 6 2 -2 -7 -6 -4 -4 -2 -3 -0 2 3 2 2 1 2 1 1 1 3 3 3 4 4 4 5 7 8 7 6 8 8 6
1 1 1 1 2 1 -1 -5 -5 -0 3 4 7 7 7 0 -3 -7 -3 -0 0 2 -0 -0 -0 1 1 1 0 1 1 1 2 3 4 3 4 5 5 4 4 5 4 7 7 6 6
0 1 1 1 1 1 1 -2 -5 -2 3 5 4 7 6 1 -5 -3 -3 -0 -1 -2 -2 -1 0 0 1 2 -2 1 2 2 3 4 3 4 4 3 4 3 5 5 6 7 7 6 7
0 1 1 1 1 1 1 1 -2 -4 -2 4 5 7 6 1 -6 -0 -2 -1 -3 -4 0 1 1 1 1 1 1 2 2 3 3 3 4 4 5 3 4 4 6 5 5 6 7 6 6
0 1 1 1 1 1 2 1 0 -2 -4 2 5 6 6 -0 -2 0 -2 -1 -4 -3 -2 -0 2 1 2 2 2 3 3 4 3 3 4 5 4 5 5 5 5 7 4 5 6 7 9
0 -0 0 0 1 0 1 1 1 -1 -0 1 5 6 5 1 2 1 0 -1 -5 1 -1 -4 1 1 2 2 1 2 4 5 5 5 4 6 5 6 5 6 4 5 4 5 5 7 8
-1 -1 -0 0 0 -1 -1 -0 0 -1 0 1 4 5 5 -1 1 0 1 -4 0 -1 -1 1 1 2 3 3 3 2 4 4 4 5 5 5 5 5 6 5 4 3 5 6 6 6 8
-1 -2 -2 -1 -2 -2 -1 -1 -0 0 -3 1 3 5 4 -1 -1 1 -1 1 0 1 -2 1 3 2 2 2 2 2 3 4 5 6 6 6 5 4 4 5 4 5 6 8 8 7 8
-2 -2 -2 -2 -2 -2 -2 -3 -4 -1 -3 0 3 4 2 -1 2 1 -0 -1 2 -2 2 -1 1 1 1 2 1 2 3 2 3 3 3 5 7 5 4 5 7 5 4 6 7 6 4
-2 -2 -2 -3 -2 -2 -3 -2 -2 -1 -1 -0 3 3 1 2 3 -1 1 -0 -1 -0 0 2 1 2 2 2 2 2 2 2 2 3 2 4 5 3 4 3 3 6 5 -0 2 0 3
-2 -3 -3 -3 -3 -2 -3 -2 -2 -1 -0 2 3 2 2 3 3 1 0 1 -0 -0 -0 1 2 1 2 3 2 2 2 2 2 3 1 2 4 4 4 2 3 1 -1 3 3 4 3
-2 -2 -1 -2 -3 -3 -3 -2 -2 -1 -0 2 2 2 2 3 2 2 1 -1 0 0 -0 1 2 2 1 3 1 1 2 2 2 2 0 1 2 3 2 4 5 2 2 2 1 2 3
-4 -2 -2 -1 -3 -3 -3 -2 -2 -2 -1 1 1 1 2 2 3 2 1 -0 -0 1 1 0 1 2 2 2 1 1 3 1 2 1 2 1 2 3 4 2 2 3 2 1 2 2 1
-3 -2 -2 -2 -1 -4 -3 -3 -2 -1 -2 -0 1 1 2 2 3 3 -0 0 1 2 1 1 1 1 -0 1 1 1 2 2 2 1 1 0 2 1 2 1 1 3 3 1 1 0 1
-3 -2 -2 -2 -2 -2 -3 -2 -1 -1 -1 1 1 2 2 2 2 0 0 1 3 1 1 0 0 -0 1 1 1 1 4 3 2 2 1 -0 1 0 2 0 2 4 3 3 1 1 2
-2 -2 -2 -2 -1 -1 -2 -1 -2 -2 0 2 1 1 2 2 2 1 -1 0 0 3 1 -1 -0 1 3 4 2 2 3 3 3 2 2 0 2 -0 1 1 2 2 2 3 2 2 2
-2 -2 -1 -1 -2 -1 -2 -1 -3 -0 1 2 2 2 1 1 1 1 1 1 2 2 0 0 1 1 0 2 1 3 2 3 3 2 2 1 3 0 1 1 1 1 1 2 2 3 2
-2 -2 -1 -2 -2 -1 -2 -2 -1 -0 1 2 2 2 1 1 1 1 1 1 1 1 1 -1 -1 1 1 0 -0 0 0 1 2 2 3 1 1 0 1 -0 -0 1 0 0 2 1 2
-2 -2 -2 -1 -1 -2 -2 -1 -1 -0 2 2 1 1 1 1 0 0 -0 0 1 1 2 1 -0 0 -0 -0 0 0 1 2 1 1 1 1 1 -0 0 -0 1 -1 -4 -2 0 -0 -0
-2 -1 -2 -1 -2 -2 -1 -1 0 1 2 2 2 1 -0 1 -0 -0 -0 1 2 2 2 1 1 1 -1 1 3 4 4 3 1 -0 1 1 2 3 1 0 -0 -0 -3 -4 -1 1 0
-3 -2 -2 -2 -2 -2 -2 -0 2 1 2 2 2 -1 -3 -1 -2 -2 0 1 2 2 1 2 2 1 -0 0 2 3 4 2 3 2 1 2 1 1 4 3 4 -2 -3 -3 -3 0 0
-2 -2 -3 -2 -2 -2 -2 0 1 1 1 2 0 -3 -4 -3 -3 -2 -0 1 1 0 1 2 2 1 0 1 2 1 1 -0 3 3 4 4 4 5 3 2 1 -3 -3 -4 -1 -3 0
-2 -3 -3 -2 -2 -3 -0 1 1 2 2 1 -1 -3 -4 -3 -3 -3 -2 -2 0 0 1 1 1 1 1 1 1 1 0 0 0 -0 1 2 2 2 3 4 2 -3 -2 -3 -4 -0 -0
-3 -3 -2 -2 -2 -0 0 2 1 2 2 1 -3 -4 -3 -3 -3 -3 -2 -1 -1 -1 1 1 -1 0 0 -1 -0 -0 0 -2 -1 1 -2 1 -0 1 1 0 -2 -2 -2 -2 -1 -1 -2